Time,TemperatureF,DewpointF,PressureIn,WindDirection,WindDirectionDegrees,WindSpeedMPH,WindSpeedGustMPH,Humidity,HourlyPrecipIn,Conditions,Clouds,dailyrainin,SolarRadiationWatts/m^2,SoftwareType,DateUTC
2014-01-02 00:00:00,50.0,21.5,29.59,SE,127,1.1,1.4,32,-99.99,,,0.00,0,rob ver 1B,2014-01-02 07:00:00,
2014-01-02 00:01:00,49.9,21.3,29.59,East,94,1.1,1.5,32,-99.99,,,0.00,0,rob ver 1B,2014-01-02 07:01:00,
2014-01-02 00:02:00,50.0,21.3,29.59,ENE,57,1.6,1.7,31,-99.99,,,0.00,0,rob ver 1B,2014-01-02 07:02:00,
2014-01-02 00:03:00,50.1,21.3,29.59,NE,35,1.8,1.9,31,-99.99,,,0.00,0,rob ver 1B,2014-01-02 07:03:00,
2014-01-02 00:04:00,50.1,21.3,29.59,NNE,14,1.9,2.1,31,-99.99,,,0.00,0,rob ver 1B,2014-01-02 07:04:00,
2014-01-02 00:05:00,50.3,21.2,29.59,North,0,2.3,2.6,31,-99.99,,,0.00,0,rob ver 1B,2014-01-02 07:05:00,
2014-01-02 00:06:00,50.5,21.1,29.59,North,1,2.6,3.1,31,-99.99,,,0.00,0,rob ver 1B,2014-01-02 07:06:00,
2014-01-02 00:07:00,50.7,21.0,29.59,North,1,3.0,3.1,30,-99.99,,,0.00,0,rob ver 1B,2014-01-02 07:07:00,
2014-01-02 00:08:00,50.9,21.0,29.59,North,9,3.3,3.6,30,-99.99,,,0.00,0,rob ver 1B,2014-01-02 07:08:00,
2014-01-02 00:09:00,50.9,21.1,29.59,NNE,22,3.8,4.3,30,-99.99,,,0.00,0,rob ver 1B,2014-01-02 07:09:00,
2014-01-02 00:10:00,50.8,21.1,29.59,NNE,28,4.2,4.6,30,-99.99,,,0.00,0,rob ver 1B,2014-01-02 07:10:00,
2014-01-02 00:11:00,50.9,20.8,29.59,NNE,14,3.9,4.5,29,-99.99,,,0.00,0,rob ver 1B,2014-01-02 07:11:00,
2014-01-02 00:12:00,51.2,20.9,29.59,North,6,3.8,4.2,30,-99.99,,,0.00,0,rob ver 1B,2014-01-02 07:12:00,
2014-01-02 00:13:00,51.0,21.1,29.59,North,358,3.6,4.2,30,-99.99,,,0.00,0,rob ver 1B,2014-01-02 07:13:00,
2014-01-02 00:14:00,50.8,21.1,29.59,North,354,3.8,4.0,31,-99.99,,,0.00,0,rob ver 1B,2014-01-02 07:14:00,
2014-01-02 00:15:00,50.7,21.3,29.59,North,358,3.6,4.0,31,-99.99,,,0.00,0,rob ver 1B,2014-01-02 07:15:00,
2014-01-02 00:16:00,50.6,21.3,29.59,North,358,3.5,3.8,31,-99.99,,,0.00,0,rob ver 1B,2014-01-02 07:16:00,
2014-01-02 00:17:00,50.5,21.3,29.59,North,0,3.2,3.5,31,-99.99,,,0.00,0,rob ver 1B,2014-01-02 07:17:00,
2014-01-02 00:18:00,50.4,21.3,29.59,North,11,3.3,3.6,31,-99.99,,,0.00,0,rob ver 1B,2014-01-02 07:18:00,
2014-01-02 00:19:00,50.2,21.2,29.59,NNE,19,2.6,3.4,31,-99.99,,,0.00,0,rob ver 1B,2014-01-02 07:19:00,
2014-01-02 00:20:00,50.1,21.3,29.59,ENE,59,1.2,2.1,32,-99.99,,,0.00,0,rob ver 1B,2014-01-02 07:20:00,
2014-01-02 00:21:00,49.8,21.8,29.59,South,179,2.9,3.8,33,-99.99,,,0.00,0,rob ver 1B,2014-01-02 07:21:00,
2014-01-02 00:22:00,49.4,21.2,29.59,South,190,1.3,3.4,32,-99.99,,,0.00,0,rob ver 1B,2014-01-02 07:22:00,
2014-01-02 00:23:00,49.4,20.9,29.59,SSE,151,0.9,1.7,32,-99.99,,,0.00,0,rob ver 1B,2014-01-02 07:23:00,
2014-01-02 00:24:00,49.4,21.5,29.59,ESE,122,2.5,2.9,32,-99.99,,,0.00,0,rob ver 1B,2014-01-02 07:24:00,
2014-01-02 00:25:00,49.4,21.3,29.59,ESE,107,2.3,2.5,32,-99.99,,,0.00,0,rob ver 1B,2014-01-02 07:25:00,
2014-01-02 00:26:00,49.4,21.3,29.59,East,93,2.7,3.1,32,-99.99,,,0.00,0,rob ver 1B,2014-01-02 07:26:00,
2014-01-02 00:27:00,49.4,21.2,29.59,East,81,2.8,3.2,32,-99.99,,,0.00,0,rob ver 1B,2014-01-02 07:27:00,
2014-01-02 00:28:00,49.4,21.3,29.59,ENE,74,3.5,4.2,32,-99.99,,,0.00,0,rob ver 1B,2014-01-02 07:28:00,
2014-01-02 00:29:00,49.5,21.0,29.59,ENE,70,3.7,4.1,32,-99.99,,,0.00,0,rob ver 1B,2014-01-02 07:29:00,
2014-01-02 00:30:00,49.7,21.0,29.59,ENE,64,3.3,3.8,32,-99.99,,,0.00,0,rob ver 1B,2014-01-02 07:30:00,
2014-01-02 00:31:00,49.7,21.1,29.59,ENE,68,3.5,3.8,32,-99.99,,,0.00,0,rob ver 1B,2014-01-02 07:31:00,
2014-01-02 00:32:00,49.6,21.2,29.59,ENE,67,3.5,4.1,32,-99.99,,,0.00,0,rob ver 1B,2014-01-02 07:32:00,
2014-01-02 00:33:00,49.5,21.2,29.59,ENE,71,3.6,4.0,32,-99.99,,,0.00,0,rob ver 1B,2014-01-02 07:33:00,
2014-01-02 00:34:00,49.5,21.3,29.59,ENE,74,3.9,4.3,32,-99.99,,,0.00,0,rob ver 1B,2014-01-02 07:34:00,
2014-01-02 00:35:00,49.4,21.3,29.59,ENE,68,3.3,4.7,32,-99.99,,,0.00,0,rob ver 1B,2014-01-02 07:35:00,
2014-01-02 00:36:00,49.4,21.3,29.59,ENE,70,3.2,4.8,32,-99.99,,,0.00,0,rob ver 1B,2014-01-02 07:36:00,
2014-01-02 00:37:00,49.8,20.8,29.59,ENE,61,3.5,4.7,31,-99.99,,,0.00,0,rob ver 1B,2014-01-02 07:37:00,
2014-01-02 00:38:00,50.2,21.1,29.59,ENE,59,3.4,4.1,31,-99.99,,,0.00,0,rob ver 1B,2014-01-02 07:38:00,
2014-01-02 00:39:00,50.4,20.9,29.59,ENE,61,3.7,4.4,30,-99.99,,,0.00,0,rob ver 1B,2014-01-02 07:39:00,
2014-01-02 00:40:00,50.5,21.1,29.59,ENE,59,2.3,3.6,31,-99.99,,,0.00,0,rob ver 1B,2014-01-02 07:40:00,
2014-01-02 00:41:00,50.5,21.1,29.59,ENE,59,2.1,2.5,31,-99.99,,,0.00,0,rob ver 1B,2014-01-02 07:41:00,
2014-01-02 00:42:00,50.4,21.3,29.59,NE,56,1.9,2.8,31,-99.99,,,0.00,0,rob ver 1B,2014-01-02 07:42:00,
2014-01-02 00:43:00,50.4,20.9,29.59,NE,43,2.7,3.2,30,-99.99,,,0.00,0,rob ver 1B,2014-01-02 07:43:00,
2014-01-02 00:44:00,50.5,21.0,29.59,NE,40,3.0,3.4,31,-99.99,,,0.00,0,rob ver 1B,2014-01-02 07:44:00,
2014-01-02 00:45:00,50.3,20.9,29.59,NE,34,3.1,3.6,31,-99.99,,,0.00,0,rob ver 1B,2014-01-02 07:45:00,
2014-01-02 00:46:00,50.1,20.9,29.59,NE,37,3.6,4.0,31,-99.99,,,0.00,0,rob ver 1B,2014-01-02 07:46:00,
2014-01-02 00:47:00,50.0,21.0,29.59,NNE,23,3.6,4.2,31,-99.99,,,0.00,0,rob ver 1B,2014-01-02 07:47:00,
2014-01-02 00:48:00,50.1,20.8,29.59,NNE,22,4.2,4.6,30,-99.99,,,0.00,0,rob ver 1B,2014-01-02 07:48:00,
2014-01-02 00:49:00,51.0,20.0,29.59,NNE,15,3.4,4.3,28,-99.99,,,0.00,0,rob ver 1B,2014-01-02 07:49:00,
2014-01-02 00:50:00,51.7,20.5,29.59,North,5,3.5,3.9,29,-99.99,,,0.00,0,rob ver 1B,2014-01-02 07:50:00,
2014-01-02 00:51:00,51.9,20.6,29.59,North,7,3.3,3.7,28,-99.99,,,0.00,0,rob ver 1B,2014-01-02 07:51:00,
2014-01-02 00:52:00,52.1,20.5,29.59,North,4,3.5,4.1,28,-99.99,,,0.00,0,rob ver 1B,2014-01-02 07:52:00,
2014-01-02 00:53:00,52.1,20.4,29.59,North,11,3.3,3.6,28,-99.99,,,0.00,0,rob ver 1B,2014-01-02 07:53:00,
2014-01-02 00:54:00,52.2,20.6,29.59,NNE,24,2.6,3.0,28,-99.99,,,0.00,0,rob ver 1B,2014-01-02 07:54:00,
2014-01-02 00:55:00,52.2,20.3,29.59,North,5,2.4,2.8,28,-99.99,,,0.00,0,rob ver 1B,2014-01-02 07:55:00,
2014-01-02 00:56:00,52.2,20.2,29.59,NNW,334,2.4,2.9,27,-99.99,,,0.00,0,rob ver 1B,2014-01-02 07:56:00,
2014-01-02 00:57:00,52.4,19.7,29.59,NW,323,1.9,2.4,27,-99.99,,,0.00,0,rob ver 1B,2014-01-02 07:57:00,
2014-01-02 00:58:00,52.7,19.8,29.59,NW,310,2.2,3.7,26,-99.99,,,0.00,0,rob ver 1B,2014-01-02 07:58:00,
2014-01-02 00:59:00,53.0,19.5,29.59,WNW,294,3.0,4.5,26,-99.99,,,0.00,0,rob ver 1B,2014-01-02 07:59:00,
2014-01-02 01:00:00,53.3,19.4,29.59,WNW,296,3.1,3.8,25,-99.99,,,0.00,0,rob ver 1B,2014-01-02 08:00:00,
2014-01-02 01:01:00,53.5,19.5,29.59,WNW,284,3.3,3.5,25,-99.99,,,0.00,0,rob ver 1B,2014-01-02 08:01:00,
2014-01-02 01:02:00,53.6,19.5,29.59,West,278,3.0,3.3,26,-99.99,,,0.00,0,rob ver 1B,2014-01-02 08:02:00,
2014-01-02 01:03:00,53.6,19.8,29.59,West,277,2.8,3.0,26,-99.99,,,0.00,0,rob ver 1B,2014-01-02 08:03:00,
2014-01-02 01:04:00,53.4,19.7,29.59,West,279,3.1,3.4,26,-99.99,,,0.00,0,rob ver 1B,2014-01-02 08:04:00,
2014-01-02 01:05:00,53.3,19.8,29.59,WNW,284,2.8,3.2,26,-99.99,,,0.00,0,rob ver 1B,2014-01-02 08:05:00,
2014-01-02 01:06:00,53.1,19.8,29.59,WNW,298,2.3,2.6,26,-99.99,,,0.00,0,rob ver 1B,2014-01-02 08:06:00,
2014-01-02 01:07:00,53.0,19.9,29.59,NW,312,2.0,2.3,27,-99.99,,,0.00,0,rob ver 1B,2014-01-02 08:07:00,
2014-01-02 01:08:00,52.8,20.2,29.59,NNW,342,1.8,2.0,27,-99.99,,,0.00,0,rob ver 1B,2014-01-02 08:08:00,
2014-01-02 01:09:00,52.4,20.1,29.59,North,3,2.2,2.5,27,-99.99,,,0.00,0,rob ver 1B,2014-01-02 08:09:00,
2014-01-02 01:10:00,52.3,20.1,29.59,North,8,2.7,3.1,27,-99.99,,,0.00,0,rob ver 1B,2014-01-02 08:10:00,
2014-01-02 01:11:00,52.1,20.2,29.59,NNE,17,3.3,3.7,28,-99.99,,,0.00,0,rob ver 1B,2014-01-02 08:11:00,
2014-01-02 01:12:00,52.1,19.9,29.59,North,11,2.9,3.4,27,-99.99,,,0.00,0,rob ver 1B,2014-01-02 08:12:00,
2014-01-02 01:13:00,52.2,19.8,29.59,North,4,2.9,3.2,27,-99.99,,,0.00,0,rob ver 1B,2014-01-02 08:13:00,
2014-01-02 01:14:00,52.4,19.8,29.59,North,5,3.1,3.6,27,-99.99,,,0.00,0,rob ver 1B,2014-01-02 08:14:00,
2014-01-02 01:15:00,52.5,19.7,29.59,North,8,3.2,3.4,27,-99.99,,,0.00,0,rob ver 1B,2014-01-02 08:15:00,
2014-01-02 01:16:00,52.6,19.5,29.59,NNE,17,3.2,3.4,26,-99.99,,,0.00,0,rob ver 1B,2014-01-02 08:16:00,
2014-01-02 01:17:00,52.9,19.4,29.59,NNE,25,3.5,3.8,26,-99.99,,,0.00,0,rob ver 1B,2014-01-02 08:17:00,
2014-01-02 01:18:00,53.1,19.2,29.59,NNE,32,3.8,4.0,26,-99.99,,,0.00,0,rob ver 1B,2014-01-02 08:18:00,
2014-01-02 01:19:00,53.0,19.6,29.59,NNE,32,4.5,5.0,26,-99.99,,,0.00,0,rob ver 1B,2014-01-02 08:19:00,
2014-01-02 01:20:00,52.8,19.2,29.59,NNE,32,4.4,4.8,26,-99.99,,,0.00,0,rob ver 1B,2014-01-02 08:20:00,
2014-01-02 01:21:00,53.0,19.6,29.59,NE,42,4.7,5.3,27,-99.99,,,0.00,0,rob ver 1B,2014-01-02 08:21:00,
2014-01-02 01:22:00,52.2,20.3,29.59,NE,51,4.0,4.8,29,-99.99,,,0.00,0,rob ver 1B,2014-01-02 08:22:00,
2014-01-02 01:23:00,51.3,20.7,29.59,NE,48,3.9,4.8,30,-99.99,,,0.00,0,rob ver 1B,2014-01-02 08:23:00,
2014-01-02 01:24:00,50.6,21.1,29.59,NE,47,4.3,5.3,31,-99.99,,,0.00,0,rob ver 1B,2014-01-02 08:24:00,
2014-01-02 01:25:00,50.0,21.4,29.59,NE,43,5.2,5.8,32,-99.99,,,0.00,0,rob ver 1B,2014-01-02 08:25:00,
2014-01-02 01:26:00,49.5,21.5,29.59,NE,45,4.6,5.4,33,-99.99,,,0.00,0,rob ver 1B,2014-01-02 08:26:00,
2014-01-02 01:27:00,49.2,21.5,29.59,NE,44,4.5,5.3,33,-99.99,,,0.00,0,rob ver 1B,2014-01-02 08:27:00,
2014-01-02 01:28:00,49.0,21.5,29.59,NE,44,4.9,5.6,33,-99.99,,,0.00,0,rob ver 1B,2014-01-02 08:28:00,
2014-01-02 01:29:00,49.0,21.5,29.59,NE,43,4.6,5.4,33,-99.99,,,0.00,0,rob ver 1B,2014-01-02 08:29:00,
2014-01-02 01:30:00,49.0,21.4,29.59,NE,41,4.6,5.2,33,-99.99,,,0.00,0,rob ver 1B,2014-01-02 08:30:00,
2014-01-02 01:31:00,49.1,21.3,29.59,NE,44,4.1,5.0,32,-99.99,,,0.00,0,rob ver 1B,2014-01-02 08:31:00,
2014-01-02 01:32:00,49.2,21.3,29.59,NE,43,3.9,4.9,32,-99.99,,,0.00,0,rob ver 1B,2014-01-02 08:32:00,
2014-01-02 01:33:00,49.2,21.3,29.59,NE,40,4.4,5.3,33,-99.99,,,0.00,0,rob ver 1B,2014-01-02 08:33:00,
2014-01-02 01:34:00,49.1,21.4,29.59,NE,40,4.3,5.1,33,-99.99,,,0.00,0,rob ver 1B,2014-01-02 08:34:00,
2014-01-02 01:35:00,49.1,21.3,29.59,NE,43,3.1,4.2,32,-99.99,,,0.00,0,rob ver 1B,2014-01-02 08:35:00,
2014-01-02 01:36:00,49.2,21.2,29.59,NE,45,2.9,3.4,32,-99.99,,,0.00,0,rob ver 1B,2014-01-02 08:36:00,
2014-01-02 01:37:00,49.5,20.9,29.59,NE,40,2.6,3.1,31,-99.99,,,0.00,0,rob ver 1B,2014-01-02 08:37:00,
2014-01-02 01:38:00,49.9,20.7,29.59,NE,41,2.3,2.8,31,-99.99,,,0.00,0,rob ver 1B,2014-01-02 08:38:00,
2014-01-02 01:39:00,50.3,20.8,29.59,NE,49,1.9,2.4,31,-99.99,,,0.00,0,rob ver 1B,2014-01-02 08:39:00,
2014-01-02 01:40:00,50.2,21.4,29.59,ENE,60,3.0,3.9,32,-99.99,,,0.00,0,rob ver 1B,2014-01-02 08:40:00,
2014-01-02 01:41:00,49.9,21.5,29.59,ENE,62,2.5,3.2,32,-99.99,,,0.00,0,rob ver 1B,2014-01-02 08:41:00,
2014-01-02 01:42:00,49.6,21.9,29.59,ESE,115,1.8,3.0,33,-99.99,,,0.00,0,rob ver 1B,2014-01-02 08:42:00,
2014-01-02 01:43:00,49.2,22.1,29.59,East,82,2.0,2.3,34,-99.99,,,0.00,0,rob ver 1B,2014-01-02 08:43:00,
2014-01-02 01:44:00,48.6,22.1,29.59,ENE,73,2.6,3.0,34,-99.99,,,0.00,0,rob ver 1B,2014-01-02 08:44:00,
2014-01-02 01:45:00,48.3,21.9,29.59,ENE,65,2.9,3.1,35,-99.99,,,0.00,0,rob ver 1B,2014-01-02 08:45:00,
2014-01-02 01:46:00,48.2,22.2,29.59,ESE,103,2.3,2.8,35,-99.99,,,0.00,0,rob ver 1B,2014-01-02 08:46:00,
2014-01-02 01:47:00,48.0,22.3,29.59,ESE,115,2.5,3.0,36,-99.99,,,0.00,0,rob ver 1B,2014-01-02 08:47:00,
2014-01-02 01:48:00,47.8,22.3,29.59,East,85,2.4,2.9,36,-99.99,,,0.00,0,rob ver 1B,2014-01-02 08:48:00,
2014-01-02 01:49:00,47.7,22.5,29.59,ESE,103,1.9,2.4,36,-99.99,,,0.00,0,rob ver 1B,2014-01-02 08:49:00,
2014-01-02 01:50:00,47.6,22.4,29.59,ESE,114,1.6,2.0,36,-99.99,,,0.00,0,rob ver 1B,2014-01-02 08:50:00,
2014-01-02 01:51:00,47.5,22.3,29.59,East,89,1.6,2.2,36,-99.99,,,0.00,0,rob ver 1B,2014-01-02 08:51:00,
2014-01-02 01:52:00,47.6,22.5,29.59,SE,138,1.0,1.2,36,-99.99,,,0.00,0,rob ver 1B,2014-01-02 08:52:00,
2014-01-02 01:53:00,47.6,22.4,29.59,East,84,1.1,1.3,36,-99.99,,,0.00,0,rob ver 1B,2014-01-02 08:53:00,
2014-01-02 01:54:00,47.6,22.3,29.59,ENE,77,0.8,1.1,36,-99.99,,,0.00,0,rob ver 1B,2014-01-02 08:54:00,
2014-01-02 01:55:00,47.6,22.3,29.59,ENE,57,0.8,1.4,36,-99.99,,,0.00,0,rob ver 1B,2014-01-02 08:55:00,
2014-01-02 01:56:00,47.6,22.3,29.59,NE,49,1.6,1.8,36,-99.99,,,0.00,0,rob ver 1B,2014-01-02 08:56:00,
2014-01-02 01:57:00,47.7,22.3,29.59,NE,42,1.0,1.5,36,-99.99,,,0.00,0,rob ver 1B,2014-01-02 08:57:00,
2014-01-02 01:58:00,47.7,22.3,29.59,NNE,25,0.6,0.9,36,-99.99,,,0.00,0,rob ver 1B,2014-01-02 08:58:00,
2014-01-02 01:59:00,47.7,22.3,29.59,North,5,1.2,1.5,36,-99.99,,,0.00,0,rob ver 1B,2014-01-02 08:59:00,
2014-01-02 02:00:00,47.7,22.3,29.59,NNE,21,1.9,2.2,36,-99.99,,,0.00,0,rob ver 1B,2014-01-02 09:00:00,
2014-01-02 02:01:00,47.8,22.4,29.59,NNE,18,2.1,2.7,36,-99.99,,,0.00,0,rob ver 1B,2014-01-02 09:01:00,
2014-01-02 02:02:00,47.8,22.1,29.59,NNE,30,2.7,3.1,35,-99.99,,,0.00,0,rob ver 1B,2014-01-02 09:02:00,
2014-01-02 02:03:00,47.8,22.3,29.59,NNE,20,3.0,3.5,36,-99.99,,,0.00,0,rob ver 1B,2014-01-02 09:03:00,
2014-01-02 02:04:00,47.7,22.5,29.59,NNE,14,3.5,3.7,36,-99.99,,,0.00,0,rob ver 1B,2014-01-02 09:04:00,
2014-01-02 02:05:00,47.4,22.5,29.59,North,1,3.2,3.4,37,-99.99,,,0.00,0,rob ver 1B,2014-01-02 09:05:00,
2014-01-02 02:06:00,47.2,22.7,29.59,North,0,3.5,3.7,37,-99.99,,,0.00,0,rob ver 1B,2014-01-02 09:06:00,
2014-01-02 02:07:00,47.2,22.8,29.59,North,4,3.7,3.8,37,-99.99,,,0.00,0,rob ver 1B,2014-01-02 09:07:00,
2014-01-02 02:08:00,47.3,22.8,29.59,North,4,3.2,3.6,37,-99.99,,,0.00,0,rob ver 1B,2014-01-02 09:08:00,
2014-01-02 02:09:00,47.2,22.7,29.59,North,8,3.5,3.7,37,-99.99,,,0.00,0,rob ver 1B,2014-01-02 09:09:00,
2014-01-02 02:10:00,47.1,22.8,29.59,North,6,3.1,3.4,37,-99.99,,,0.00,0,rob ver 1B,2014-01-02 09:10:00,
2014-01-02 02:11:00,47.3,22.6,29.59,North,5,3.0,3.1,37,-99.99,,,0.00,0,rob ver 1B,2014-01-02 09:11:00,
2014-01-02 02:12:00,47.5,22.8,29.59,North,7,3.3,3.6,37,-99.99,,,0.00,0,rob ver 1B,2014-01-02 09:12:00,
2014-01-02 02:13:00,47.5,22.6,29.59,North,11,3.1,3.4,37,-99.99,,,0.00,0,rob ver 1B,2014-01-02 09:13:00,
2014-01-02 02:14:00,47.4,22.6,29.59,NNE,15,2.5,2.7,37,-99.99,,,0.00,0,rob ver 1B,2014-01-02 09:14:00,
2014-01-02 02:15:00,47.2,22.7,29.59,NNE,19,3.1,3.6,38,-99.99,,,0.00,0,rob ver 1B,2014-01-02 09:15:00,
2014-01-02 02:16:00,46.9,22.8,29.59,NNE,18,3.7,3.9,38,-99.99,,,0.00,0,rob ver 1B,2014-01-02 09:16:00,
2014-01-02 02:17:00,46.7,22.7,29.59,NNE,20,3.3,3.6,38,-99.99,,,0.00,0,rob ver 1B,2014-01-02 09:17:00,
2014-01-02 02:18:00,46.5,22.7,29.59,NNE,19,3.2,3.6,38,-99.99,,,0.00,0,rob ver 1B,2014-01-02 09:18:00,
2014-01-02 02:19:00,46.3,22.6,29.59,NNE,16,3.6,4.0,39,-99.99,,,0.00,0,rob ver 1B,2014-01-02 09:19:00,
2014-01-02 02:20:00,46.5,22.4,29.59,NNE,19,3.3,3.5,37,-99.99,,,0.00,0,rob ver 1B,2014-01-02 09:20:00,
2014-01-02 02:21:00,47.3,21.1,29.59,NNE,13,3.3,3.5,33,-99.99,,,0.00,0,rob ver 1B,2014-01-02 09:21:00,
2014-01-02 02:22:00,48.4,20.7,29.59,North,8,3.0,3.3,32,-99.99,,,0.00,0,rob ver 1B,2014-01-02 09:22:00,
2014-01-02 02:23:00,49.3,20.3,29.59,North,10,2.8,3.0,31,-99.99,,,0.00,0,rob ver 1B,2014-01-02 09:23:00,
2014-01-02 02:24:00,49.8,20.6,29.59,North,11,2.6,2.6,30,-99.99,,,0.00,0,rob ver 1B,2014-01-02 09:24:00,
2014-01-02 02:25:00,50.2,20.6,29.59,North,7,2.5,2.7,30,-99.99,,,0.00,0,rob ver 1B,2014-01-02 09:25:00,
2014-01-02 02:26:00,50.4,20.8,29.59,North,3,2.8,2.9,30,-99.99,,,0.00,0,rob ver 1B,2014-01-02 09:26:00,
2014-01-02 02:27:00,50.6,20.4,29.59,North,359,2.8,2.9,30,-99.99,,,0.00,0,rob ver 1B,2014-01-02 09:27:00,
2014-01-02 02:28:00,50.5,21.2,29.59,North,0,3.0,3.2,31,-99.99,,,0.00,0,rob ver 1B,2014-01-02 09:28:00,
2014-01-02 02:29:00,50.1,21.6,29.59,North,7,3.6,4.0,32,-99.99,,,0.00,0,rob ver 1B,2014-01-02 09:29:00,
2014-01-02 02:30:00,49.6,21.7,29.59,North,3,4.0,4.3,33,-99.99,,,0.00,0,rob ver 1B,2014-01-02 09:30:00,
2014-01-02 02:31:00,49.1,22.2,29.59,NNE,15,3.3,3.9,35,-99.99,,,0.00,0,rob ver 1B,2014-01-02 09:31:00,
2014-01-02 02:32:00,48.6,22.4,29.59,North,7,3.6,4.1,35,-99.99,,,0.00,0,rob ver 1B,2014-01-02 09:32:00,
2014-01-02 02:33:00,48.4,22.4,29.59,NNE,13,3.3,3.6,36,-99.99,,,0.00,0,rob ver 1B,2014-01-02 09:33:00,
2014-01-02 02:34:00,48.2,22.7,29.59,NNE,13,3.3,3.5,36,-99.99,,,0.00,0,rob ver 1B,2014-01-02 09:34:00,
2014-01-02 02:35:00,47.9,22.6,29.59,NNE,15,2.7,3.1,36,-99.99,,,0.00,0,rob ver 1B,2014-01-02 09:35:00,
2014-01-02 02:36:00,47.8,22.6,29.59,NNE,14,2.6,2.9,37,-99.99,,,0.00,0,rob ver 1B,2014-01-02 09:36:00,
2014-01-02 02:37:00,47.6,22.7,29.59,NNE,29,2.1,2.6,37,-99.99,,,0.00,0,rob ver 1B,2014-01-02 09:37:00,
2014-01-02 02:38:00,47.5,22.6,29.59,NNE,24,1.9,2.2,37,-99.99,,,0.00,0,rob ver 1B,2014-01-02 09:38:00,
2014-01-02 02:39:00,47.4,22.6,29.59,North,7,1.5,1.9,37,-99.99,,,0.00,0,rob ver 1B,2014-01-02 09:39:00,
2014-01-02 02:40:00,47.4,22.5,29.59,NNW,339,1.2,1.5,37,-99.99,,,0.00,0,rob ver 1B,2014-01-02 09:40:00,
2014-01-02 02:41:00,47.4,22.4,29.59,NW,323,1.4,2.0,37,-99.99,,,0.00,0,rob ver 1B,2014-01-02 09:41:00,
2014-01-02 02:42:00,47.4,22.3,29.59,NW,317,1.8,2.5,36,-99.99,,,0.00,0,rob ver 1B,2014-01-02 09:42:00,
2014-01-02 02:43:00,47.4,22.1,29.59,West,280,1.0,2.1,36,-99.99,,,0.00,0,rob ver 1B,2014-01-02 09:43:00,
2014-01-02 02:44:00,47.5,22.4,29.59,North,353,1.7,2.2,36,-99.99,,,0.00,0,rob ver 1B,2014-01-02 09:44:00,
2014-01-02 02:45:00,47.5,22.7,29.59,ENE,75,0.5,0.8,37,-99.99,,,0.00,0,rob ver 1B,2014-01-02 09:45:00,
2014-01-02 02:46:00,47.3,22.6,29.59,NNE,30,1.0,1.2,37,-99.99,,,0.00,0,rob ver 1B,2014-01-02 09:46:00,
2014-01-02 02:47:00,47.2,22.8,29.59,NE,47,1.4,1.9,38,-99.99,,,0.00,0,rob ver 1B,2014-01-02 09:47:00,
2014-01-02 02:48:00,46.9,23.1,29.59,NE,45,2.0,2.9,38,-99.99,,,0.00,0,rob ver 1B,2014-01-02 09:48:00,
2014-01-02 02:49:00,46.8,22.7,29.59,NE,35,2.2,3.4,38,-99.99,,,0.00,0,rob ver 1B,2014-01-02 09:49:00,
2014-01-02 02:50:00,46.8,22.8,29.59,NE,45,1.9,2.5,38,-99.99,,,0.00,0,rob ver 1B,2014-01-02 09:50:00,
2014-01-02 02:51:00,46.7,22.9,29.59,NE,50,1.8,2.4,38,-99.99,,,0.00,0,rob ver 1B,2014-01-02 09:51:00,
2014-01-02 02:52:00,46.6,23.0,29.59,ENE,68,0.7,1.5,39,-99.99,,,0.00,0,rob ver 1B,2014-01-02 09:52:00,
2014-01-02 02:53:00,46.5,23.2,29.59,NE,45,0.5,0.8,39,-99.99,,,0.00,0,rob ver 1B,2014-01-02 09:53:00,
2014-01-02 02:54:00,46.3,23.0,29.59,ENE,60,0.6,0.9,39,-99.99,,,0.00,0,rob ver 1B,2014-01-02 09:54:00,
2014-01-02 02:55:00,46.3,22.8,29.59,NE,54,0.9,1.0,39,-99.99,,,0.00,0,rob ver 1B,2014-01-02 09:55:00,
2014-01-02 02:56:00,46.3,22.9,29.59,ENE,57,0.7,0.9,39,-99.99,,,0.00,0,rob ver 1B,2014-01-02 09:56:00,
2014-01-02 02:57:00,46.3,22.8,29.59,ENE,62,0.8,1.0,39,-99.99,,,0.00,0,rob ver 1B,2014-01-02 09:57:00,
2014-01-02 02:58:00,46.4,22.9,29.59,NE,39,0.8,1.0,39,-99.99,,,0.00,0,rob ver 1B,2014-01-02 09:58:00,
2014-01-02 02:59:00,46.6,22.9,29.59,NE,38,0.8,1.0,38,-99.99,,,0.00,0,rob ver 1B,2014-01-02 09:59:00,
2014-01-02 03:00:00,46.8,22.9,29.59,NE,44,0.9,1.1,38,-99.99,,,0.00,0,rob ver 1B,2014-01-02 10:00:00,
2014-01-02 03:01:00,47.0,22.8,29.59,NE,45,0.8,0.9,38,-99.99,,,0.00,0,rob ver 1B,2014-01-02 10:01:00,
2014-01-02 03:02:00,47.2,22.7,29.59,ENE,66,0.7,0.9,37,-99.99,,,0.00,0,rob ver 1B,2014-01-02 10:02:00,
2014-01-02 03:03:00,47.4,22.6,29.59,ENE,68,1.8,4.0,37,-99.99,,,0.00,0,rob ver 1B,2014-01-02 10:03:00,
2014-01-02 03:04:00,47.4,22.9,29.59,ENE,77,3.8,4.1,38,-99.99,,,0.00,0,rob ver 1B,2014-01-02 10:04:00,
2014-01-02 03:05:00,47.1,22.8,29.59,ENE,76,3.4,3.9,38,-99.99,,,0.00,0,rob ver 1B,2014-01-02 10:05:00,
2014-01-02 03:06:00,47.1,22.8,29.59,ENE,71,3.0,3.1,37,-99.99,,,0.00,0,rob ver 1B,2014-01-02 10:06:00,
2014-01-02 03:07:00,47.2,22.9,29.59,ENE,60,3.0,3.6,38,-99.99,,,0.00,0,rob ver 1B,2014-01-02 10:07:00,
2014-01-02 03:08:00,47.1,23.0,29.59,NE,51,2.9,3.4,38,-99.99,,,0.00,0,rob ver 1B,2014-01-02 10:08:00,
2014-01-02 03:09:00,47.1,23.0,29.59,NE,43,2.1,2.4,38,-99.99,,,0.00,0,rob ver 1B,2014-01-02 10:09:00,
2014-01-02 03:10:00,47.1,23.0,29.59,NE,43,2.8,3.2,38,-99.99,,,0.00,0,rob ver 1B,2014-01-02 10:10:00,
2014-01-02 03:11:00,47.2,23.1,29.59,NE,41,2.3,2.9,38,-99.99,,,0.00,0,rob ver 1B,2014-01-02 10:11:00,
2014-01-02 03:12:00,47.3,23.1,29.59,NE,40,2.6,3.0,38,-99.99,,,0.00,0,rob ver 1B,2014-01-02 10:12:00,
2014-01-02 03:13:00,47.3,23.0,29.59,NE,36,1.7,2.2,38,-99.99,,,0.00,0,rob ver 1B,2014-01-02 10:13:00,
2014-01-02 03:14:00,47.2,23.0,29.59,NE,35,1.3,1.6,38,-99.99,,,0.00,0,rob ver 1B,2014-01-02 10:14:00,
2014-01-02 03:15:00,47.2,23.0,29.59,NE,42,1.1,1.6,38,-99.99,,,0.00,0,rob ver 1B,2014-01-02 10:15:00,
2014-01-02 03:16:00,47.1,23.1,29.59,NE,38,1.4,1.6,38,-99.99,,,0.00,0,rob ver 1B,2014-01-02 10:16:00,
2014-01-02 03:17:00,47.1,23.0,29.59,NE,43,1.8,2.1,38,-99.99,,,0.00,0,rob ver 1B,2014-01-02 10:17:00,
2014-01-02 03:18:00,46.9,23.0,29.59,NE,43,2.1,2.5,38,-99.99,,,0.00,0,rob ver 1B,2014-01-02 10:18:00,
2014-01-02 03:19:00,46.9,23.2,29.59,NNE,31,1.8,2.1,38,-99.99,,,0.00,0,rob ver 1B,2014-01-02 10:19:00,
2014-01-02 03:20:00,47.0,23.2,29.59,NNE,26,1.9,2.2,38,-99.99,,,0.00,0,rob ver 1B,2014-01-02 10:20:00,
2014-01-02 03:21:00,47.1,23.1,29.59,NNE,19,2.1,2.6,38,-99.99,,,0.00,0,rob ver 1B,2014-01-02 10:21:00,
2014-01-02 03:22:00,47.2,23.2,29.59,NNE,14,2.4,2.8,38,-99.99,,,0.00,0,rob ver 1B,2014-01-02 10:22:00,
2014-01-02 03:23:00,47.1,23.2,29.59,North,7,2.2,2.5,38,-99.99,,,0.00,0,rob ver 1B,2014-01-02 10:23:00,
2014-01-02 03:24:00,47.0,23.1,29.59,North,7,1.8,2.2,38,-99.99,,,0.00,0,rob ver 1B,2014-01-02 10:24:00,
2014-01-02 03:25:00,46.9,23.3,29.59,North,1,1.6,2.4,39,-99.99,,,0.00,0,rob ver 1B,2014-01-02 10:25:00,
2014-01-02 03:26:00,46.8,23.5,29.59,North,353,1.6,1.9,39,-99.99,,,0.00,0,rob ver 1B,2014-01-02 10:26:00,
2014-01-02 03:27:00,47.0,22.8,29.59,NNW,348,1.0,1.2,37,-99.99,,,0.00,0,rob ver 1B,2014-01-02 10:27:00,
2014-01-02 03:28:00,47.4,22.8,29.59,NNW,347,1.3,1.5,36,-99.99,,,0.00,0,rob ver 1B,2014-01-02 10:28:00,
2014-01-02 03:29:00,47.9,22.2,29.59,North,355,1.2,1.8,36,-99.99,,,0.00,0,rob ver 1B,2014-01-02 10:29:00,
2014-01-02 03:30:00,48.3,22.5,29.59,North,350,1.7,2.0,35,-99.99,,,0.00,0,rob ver 1B,2014-01-02 10:30:00,
2014-01-02 03:31:00,48.6,22.0,29.59,NNW,343,1.2,1.9,34,-99.99,,,0.00,0,rob ver 1B,2014-01-02 10:31:00,
2014-01-02 03:32:00,48.9,22.0,29.59,North,353,1.4,1.9,34,-99.99,,,0.00,0,rob ver 1B,2014-01-02 10:32:00,
2014-01-02 03:33:00,49.0,22.2,29.59,North,8,2.4,2.7,34,-99.99,,,0.00,0,rob ver 1B,2014-01-02 10:33:00,
2014-01-02 03:34:00,48.9,22.3,29.59,North,11,2.6,2.9,34,-99.99,,,0.00,0,rob ver 1B,2014-01-02 10:34:00,
2014-01-02 03:35:00,48.6,22.3,29.59,NNE,14,2.1,2.3,35,-99.99,,,0.00,0,rob ver 1B,2014-01-02 10:35:00,
2014-01-02 03:36:00,48.5,22.5,29.59,North,6,2.0,2.2,35,-99.99,,,0.00,0,rob ver 1B,2014-01-02 10:36:00,
2014-01-02 03:37:00,48.5,22.6,29.59,North,1,1.8,1.9,35,-99.99,,,0.00,0,rob ver 1B,2014-01-02 10:37:00,
2014-01-02 03:38:00,48.4,22.8,29.59,North,351,2.0,2.2,36,-99.99,,,0.00,0,rob ver 1B,2014-01-02 10:38:00,
2014-01-02 03:39:00,48.3,22.8,29.59,North,350,2.2,2.3,36,-99.99,,,0.00,0,rob ver 1B,2014-01-02 10:39:00,
2014-01-02 03:40:00,48.3,22.8,29.59,North,359,2.3,2.5,36,-99.99,,,0.00,0,rob ver 1B,2014-01-02 10:40:00,
2014-01-02 03:41:00,48.2,22.9,29.59,NNW,338,2.0,2.5,36,-99.99,,,0.00,0,rob ver 1B,2014-01-02 10:41:00,
2014-01-02 03:42:00,48.1,22.9,29.59,NNW,343,1.6,1.9,36,-99.99,,,0.00,0,rob ver 1B,2014-01-02 10:42:00,
2014-01-02 03:43:00,48.1,23.0,29.59,NW,304,1.3,1.4,36,-99.99,,,0.00,0,rob ver 1B,2014-01-02 10:43:00,
2014-01-02 03:44:00,48.0,22.5,29.59,WSW,238,1.8,2.5,35,-99.99,,,0.00,0,rob ver 1B,2014-01-02 10:44:00,
2014-01-02 03:45:00,48.1,22.4,29.59,SW,221,2.8,3.2,35,-99.99,,,0.00,0,rob ver 1B,2014-01-02 10:45:00,
2014-01-02 03:46:00,48.2,21.6,29.59,SSW,213,3.3,3.4,34,-99.99,,,0.00,0,rob ver 1B,2014-01-02 10:46:00,
2014-01-02 03:47:00,48.5,21.8,29.59,SW,216,2.6,3.2,34,-99.99,,,0.00,0,rob ver 1B,2014-01-02 10:47:00,
2014-01-02 03:48:00,48.7,22.6,29.59,WNW,302,0.7,1.8,36,-99.99,,,0.00,0,rob ver 1B,2014-01-02 10:48:00,
2014-01-02 03:49:00,48.1,22.7,29.59,NE,41,4.3,6.1,37,-99.99,,,0.00,0,rob ver 1B,2014-01-02 10:49:00,
2014-01-02 03:50:00,47.4,22.7,29.59,NE,34,2.5,4.0,37,-99.99,,,0.00,0,rob ver 1B,2014-01-02 10:50:00,
2014-01-02 03:51:00,47.3,22.6,29.59,NE,40,1.6,1.9,37,-99.99,,,0.00,0,rob ver 1B,2014-01-02 10:51:00,
2014-01-02 03:52:00,47.4,22.7,29.59,NE,40,1.6,1.8,37,-99.99,,,0.00,0,rob ver 1B,2014-01-02 10:52:00,
2014-01-02 03:53:00,47.5,22.7,29.59,NE,43,2.6,3.2,36,-99.99,,,0.00,0,rob ver 1B,2014-01-02 10:53:00,
2014-01-02 03:54:00,47.8,22.5,29.59,NE,39,3.0,3.5,36,-99.99,,,0.00,0,rob ver 1B,2014-01-02 10:54:00,
2014-01-02 03:55:00,48.0,22.4,29.59,NE,40,2.7,2.9,36,-99.99,,,0.00,0,rob ver 1B,2014-01-02 10:55:00,
2014-01-02 03:56:00,48.1,22.3,29.59,NE,36,2.9,3.3,35,-99.99,,,0.00,0,rob ver 1B,2014-01-02 10:56:00,
2014-01-02 03:57:00,48.2,22.4,29.59,NNE,30,2.7,2.9,35,-99.99,,,0.00,0,rob ver 1B,2014-01-02 10:57:00,
2014-01-02 03:58:00,48.3,22.5,29.59,NNE,29,2.6,2.7,36,-99.99,,,0.00,0,rob ver 1B,2014-01-02 10:58:00,
2014-01-02 03:59:00,48.2,22.7,29.59,NNE,19,2.2,2.6,36,-99.99,,,0.00,0,rob ver 1B,2014-01-02 10:59:00,
2014-01-02 04:00:00,48.3,22.6,29.59,NNE,12,1.7,1.9,35,-99.99,,,0.00,0,rob ver 1B,2014-01-02 11:00:00,
2014-01-02 04:01:00,48.4,22.4,29.59,NNE,15,1.7,1.8,35,-99.99,,,0.00,0,rob ver 1B,2014-01-02 11:01:00,
2014-01-02 04:02:00,48.5,22.2,29.59,North,6,1.2,1.6,34,-99.99,,,0.00,0,rob ver 1B,2014-01-02 11:02:00,
2014-01-02 04:03:00,48.6,22.1,29.59,NNW,344,0.6,0.8,34,-99.99,,,0.00,0,rob ver 1B,2014-01-02 11:03:00,
2014-01-02 04:04:00,48.6,22.2,29.59,NNW,344,0.3,0.6,35,-99.99,,,0.00,0,rob ver 1B,2014-01-02 11:04:00,
2014-01-02 04:05:00,48.5,22.5,29.59,West,272,0.3,0.4,35,-99.99,,,0.00,0,rob ver 1B,2014-01-02 11:05:00,
2014-01-02 04:06:00,48.3,22.8,29.59,WSW,251,1.1,1.7,36,-99.99,,,0.00,0,rob ver 1B,2014-01-02 11:06:00,
2014-01-02 04:07:00,48.1,22.9,29.59,WSW,238,2.3,2.8,37,-99.99,,,0.00,0,rob ver 1B,2014-01-02 11:07:00,
2014-01-02 04:08:00,47.8,23.0,29.59,SW,234,2.7,2.8,37,-99.99,,,0.00,0,rob ver 1B,2014-01-02 11:08:00,
2014-01-02 04:09:00,47.6,23.2,29.59,SW,236,2.6,3.0,38,-99.99,,,0.00,0,rob ver 1B,2014-01-02 11:09:00,
2014-01-02 04:10:00,47.3,23.2,29.59,SW,222,2.6,3.2,38,-99.99,,,0.00,0,rob ver 1B,2014-01-02 11:10:00,
2014-01-02 04:11:00,46.9,23.2,29.59,SW,215,2.3,2.5,39,-99.99,,,0.00,0,rob ver 1B,2014-01-02 11:11:00,
2014-01-02 04:12:00,46.5,23.3,29.59,SSW,209,1.6,2.0,40,-99.99,,,0.00,0,rob ver 1B,2014-01-02 11:12:00,
2014-01-02 04:13:00,46.1,23.4,29.59,South,176,0.9,1.2,40,-99.99,,,0.00,0,rob ver 1B,2014-01-02 11:13:00,
2014-01-02 04:14:00,45.7,23.4,29.59,SSE,167,0.4,0.7,41,-99.99,,,0.00,0,rob ver 1B,2014-01-02 11:14:00,
2014-01-02 04:15:00,45.5,23.5,29.59,East,79,1.1,1.8,41,-99.99,,,0.00,0,rob ver 1B,2014-01-02 11:15:00,
2014-01-02 04:16:00,45.3,23.7,29.59,NE,50,2.1,2.6,42,-99.99,,,0.00,0,rob ver 1B,2014-01-02 11:16:00,
2014-01-02 04:17:00,45.1,23.7,29.59,ENE,57,2.7,3.2,42,-99.99,,,0.00,0,rob ver 1B,2014-01-02 11:17:00,
2014-01-02 04:18:00,45.0,23.8,29.59,NE,56,1.5,2.5,42,-99.99,,,0.00,0,rob ver 1B,2014-01-02 11:18:00,
2014-01-02 04:19:00,45.0,24.0,29.59,ENE,77,1.0,1.1,43,-99.99,,,0.00,0,rob ver 1B,2014-01-02 11:19:00,
2014-01-02 04:20:00,44.8,24.0,29.59,ESE,102,1.4,1.6,43,-99.99,,,0.00,0,rob ver 1B,2014-01-02 11:20:00,
2014-01-02 04:21:00,44.7,23.8,29.59,East,99,1.7,1.8,43,-99.99,,,0.00,0,rob ver 1B,2014-01-02 11:21:00,
2014-01-02 04:22:00,44.8,23.7,29.59,ESE,105,1.6,1.8,42,-99.99,,,0.00,0,rob ver 1B,2014-01-02 11:22:00,
2014-01-02 04:23:00,45.0,23.6,29.59,ESE,117,1.3,1.5,42,-99.99,,,0.00,0,rob ver 1B,2014-01-02 11:23:00,
2014-01-02 04:24:00,45.1,23.6,29.59,ESE,108,1.1,1.3,42,-99.99,,,0.00,0,rob ver 1B,2014-01-02 11:24:00,
2014-01-02 04:25:00,45.2,23.4,29.59,East,99,1.0,1.2,41,-99.99,,,0.00,0,rob ver 1B,2014-01-02 11:25:00,
2014-01-02 04:26:00,45.4,23.4,29.59,ESE,105,0.8,0.9,41,-99.99,,,0.00,0,rob ver 1B,2014-01-02 11:26:00,
2014-01-02 04:27:00,45.6,23.4,29.59,East,94,0.8,0.9,40,-99.99,,,0.00,0,rob ver 1B,2014-01-02 11:27:00,
2014-01-02 04:28:00,45.7,23.4,29.59,NE,54,0.9,1.1,41,-99.99,,,0.00,0,rob ver 1B,2014-01-02 11:28:00,
2014-01-02 04:29:00,45.8,23.5,29.59,NE,35,1.0,1.3,41,-99.99,,,0.00,0,rob ver 1B,2014-01-02 11:29:00,
2014-01-02 04:30:00,45.9,23.6,29.59,NE,39,1.4,1.5,41,-99.99,,,0.00,0,rob ver 1B,2014-01-02 11:30:00,
2014-01-02 04:31:00,46.0,23.6,29.59,NE,36,1.1,1.4,40,-99.99,,,0.00,0,rob ver 1B,2014-01-02 11:31:00,
2014-01-02 04:32:00,46.0,23.5,29.59,NE,45,1.3,1.5,40,-99.99,,,0.00,0,rob ver 1B,2014-01-02 11:32:00,
2014-01-02 04:33:00,46.1,23.5,29.59,NE,47,1.1,1.4,40,-99.99,,,0.00,0,rob ver 1B,2014-01-02 11:33:00,
2014-01-02 04:34:00,46.3,23.5,29.59,NNE,27,0.9,1.2,40,-99.99,,,0.00,0,rob ver 1B,2014-01-02 11:34:00,
2014-01-02 04:35:00,46.3,23.4,29.59,NE,41,0.6,0.9,39,-99.99,,,0.00,0,rob ver 1B,2014-01-02 11:35:00,
2014-01-02 04:36:00,46.5,23.3,29.59,NNE,22,0.6,0.7,39,-99.99,,,0.00,0,rob ver 1B,2014-01-02 11:36:00,
2014-01-02 04:37:00,46.6,23.3,29.59,North,7,0.6,0.6,39,-99.99,,,0.00,0,rob ver 1B,2014-01-02 11:37:00,
2014-01-02 04:38:00,46.8,23.2,29.59,North,350,0.5,0.6,38,-99.99,,,0.00,0,rob ver 1B,2014-01-02 11:38:00,
2014-01-02 04:39:00,46.9,23.0,29.59,North,7,0.6,0.8,38,-99.99,,,0.00,0,rob ver 1B,2014-01-02 11:39:00,
2014-01-02 04:40:00,47.1,22.9,29.59,North,359,0.8,1.1,37,-99.99,,,0.00,0,rob ver 1B,2014-01-02 11:40:00,
2014-01-02 04:41:00,47.3,22.8,29.59,North,4,1.3,1.7,37,-99.99,,,0.00,0,rob ver 1B,2014-01-02 11:41:00,
2014-01-02 04:42:00,47.5,22.7,29.59,NNE,14,1.7,1.9,36,-99.99,,,0.00,0,rob ver 1B,2014-01-02 11:42:00,
2014-01-02 04:43:00,47.7,22.6,29.59,NNE,29,1.9,2.5,36,-99.99,,,0.00,0,rob ver 1B,2014-01-02 11:43:00,
2014-01-02 04:44:00,48.0,22.1,29.59,NNE,21,2.1,2.6,35,-99.99,,,0.00,0,rob ver 1B,2014-01-02 11:44:00,
2014-01-02 04:45:00,48.2,21.9,29.59,NNE,15,2.0,2.3,34,-99.99,,,0.00,0,rob ver 1B,2014-01-02 11:45:00,
2014-01-02 04:46:00,48.4,21.7,29.59,NNE,19,1.5,1.7,34,-99.99,,,0.00,0,rob ver 1B,2014-01-02 11:46:00,
2014-01-02 04:47:00,48.6,21.5,29.59,NNE,19,1.1,1.7,33,-99.99,,,0.00,0,rob ver 1B,2014-01-02 11:47:00,
2014-01-02 04:48:00,48.7,21.5,29.59,NNE,33,1.4,1.8,33,-99.99,,,0.00,0,rob ver 1B,2014-01-02 11:48:00,
2014-01-02 04:49:00,48.8,21.5,29.59,NNW,344,0.9,1.2,33,-99.99,,,0.00,0,rob ver 1B,2014-01-02 11:49:00,
2014-01-02 04:50:00,48.9,21.4,29.59,NNE,14,1.2,2.1,33,-99.99,,,0.00,0,rob ver 1B,2014-01-02 11:50:00,
2014-01-02 04:51:00,48.9,21.4,29.59,NNE,30,1.6,2.1,33,-99.99,,,0.00,0,rob ver 1B,2014-01-02 11:51:00,
2014-01-02 04:52:00,49.0,21.4,29.59,NNE,22,0.9,1.4,33,-99.99,,,0.00,0,rob ver 1B,2014-01-02 11:52:00,
2014-01-02 04:53:00,49.0,21.4,29.59,North,354,0.6,1.2,33,-99.99,,,0.00,0,rob ver 1B,2014-01-02 11:53:00,
2014-01-02 04:54:00,49.0,21.4,29.59,NNE,20,1.1,1.5,33,-99.99,,,0.00,0,rob ver 1B,2014-01-02 11:54:00,
2014-01-02 04:55:00,49.0,21.4,29.59,NNE,16,1.0,1.3,33,-99.99,,,0.00,0,rob ver 1B,2014-01-02 11:55:00,
2014-01-02 04:56:00,49.0,21.4,29.59,NNE,28,1.3,1.5,33,-99.99,,,0.00,0,rob ver 1B,2014-01-02 11:56:00,
2014-01-02 04:57:00,48.9,21.4,29.59,NNE,18,1.6,1.8,33,-99.99,,,0.00,0,rob ver 1B,2014-01-02 11:57:00,
2014-01-02 04:58:00,49.0,21.4,29.59,North,7,1.6,1.9,33,-99.99,,,0.00,0,rob ver 1B,2014-01-02 11:58:00,
2014-01-02 04:59:00,48.9,21.6,29.59,NNE,20,1.6,2.1,34,-99.99,,,0.00,0,rob ver 1B,2014-01-02 11:59:00,
2014-01-02 05:00:00,48.5,21.6,29.59,North,358,0.9,1.5,34,-99.99,,,0.00,0,rob ver 1B,2014-01-02 12:00:00,
2014-01-02 05:01:00,48.3,21.7,29.59,North,2,1.0,1.5,34,-99.99,,,0.00,0,rob ver 1B,2014-01-02 12:01:00,
2014-01-02 05:02:00,48.1,21.7,29.59,North,5,1.7,2.2,35,-99.99,,,0.00,0,rob ver 1B,2014-01-02 12:02:00,
2014-01-02 05:03:00,47.8,22.3,29.59,NE,34,2.2,2.6,36,-99.99,,,0.00,0,rob ver 1B,2014-01-02 12:03:00,
2014-01-02 05:04:00,47.4,22.6,29.59,NNE,32,2.3,2.7,37,-99.99,,,0.00,0,rob ver 1B,2014-01-02 12:04:00,
2014-01-02 05:05:00,47.3,22.4,29.59,NNE,32,2.6,3.2,36,-99.99,,,0.00,0,rob ver 1B,2014-01-02 12:05:00,
2014-01-02 05:06:00,47.5,22.3,29.59,NNE,30,3.0,3.2,36,-99.99,,,0.00,0,rob ver 1B,2014-01-02 12:06:00,
2014-01-02 05:07:00,47.4,22.3,29.59,NNE,29,2.3,2.6,36,-99.99,,,0.00,0,rob ver 1B,2014-01-02 12:07:00,
2014-01-02 05:08:00,47.3,22.4,29.59,NE,34,2.3,2.6,37,-99.99,,,0.00,0,rob ver 1B,2014-01-02 12:08:00,
2014-01-02 05:09:00,47.2,22.7,29.59,NE,34,2.9,3.2,37,-99.99,,,0.00,0,rob ver 1B,2014-01-02 12:09:00,
2014-01-02 05:10:00,47.1,22.6,29.59,NNE,24,2.7,2.9,37,-99.99,,,0.00,0,rob ver 1B,2014-01-02 12:10:00,
2014-01-02 05:11:00,47.3,22.4,29.59,NNE,16,2.7,2.9,36,-99.99,,,0.00,0,rob ver 1B,2014-01-02 12:11:00,
2014-01-02 05:12:00,47.6,22.1,29.59,NNE,17,2.8,3.0,36,-99.99,,,0.00,0,rob ver 1B,2014-01-02 12:12:00,
2014-01-02 05:13:00,47.8,22.4,29.59,NNE,26,3.3,4.0,35,-99.99,,,0.00,0,rob ver 1B,2014-01-02 12:13:00,
2014-01-02 05:14:00,47.6,22.8,29.59,NE,37,4.3,4.9,38,-99.99,,,0.00,0,rob ver 1B,2014-01-02 12:14:00,
2014-01-02 05:15:00,46.9,23.5,29.59,NE,36,3.7,4.4,40,-99.99,,,0.00,0,rob ver 1B,2014-01-02 12:15:00,
2014-01-02 05:16:00,46.3,23.9,29.59,NE,37,3.6,4.5,41,-99.99,,,0.00,0,rob ver 1B,2014-01-02 12:16:00,
2014-01-02 05:17:00,46.0,24.3,29.59,NE,41,4.1,4.7,42,-99.99,,,0.00,0,rob ver 1B,2014-01-02 12:17:00,
2014-01-02 05:18:00,45.7,24.3,29.59,NNE,33,3.7,4.5,42,-99.99,,,0.00,0,rob ver 1B,2014-01-02 12:18:00,
2014-01-02 05:19:00,45.5,24.3,29.59,NNE,28,2.9,3.6,43,-99.99,,,0.00,0,rob ver 1B,2014-01-02 12:19:00,
2014-01-02 05:20:00,45.4,24.4,29.59,NE,36,2.9,3.7,43,-99.99,,,0.00,0,rob ver 1B,2014-01-02 12:20:00,
2014-01-02 05:21:00,45.2,24.4,29.59,NE,37,3.2,3.8,43,-99.99,,,0.00,0,rob ver 1B,2014-01-02 12:21:00,
2014-01-02 05:22:00,45.1,24.4,29.59,North,9,2.9,3.3,43,-99.99,,,0.00,0,rob ver 1B,2014-01-02 12:22:00,
2014-01-02 05:23:00,45.1,24.5,29.59,North,4,2.6,2.9,43,-99.99,,,0.00,0,rob ver 1B,2014-01-02 12:23:00,
2014-01-02 05:24:00,45.0,24.5,29.59,North,354,2.7,2.8,44,-99.99,,,0.00,0,rob ver 1B,2014-01-02 12:24:00,
2014-01-02 05:25:00,45.0,24.6,29.59,North,4,2.4,2.9,44,-99.99,,,0.00,0,rob ver 1B,2014-01-02 12:25:00,
2014-01-02 05:26:00,44.8,24.6,29.59,North,5,1.8,1.9,45,-99.99,,,0.00,0,rob ver 1B,2014-01-02 12:26:00,
2014-01-02 05:27:00,44.8,24.9,29.59,North,2,2.0,2.9,45,-99.99,,,0.00,0,rob ver 1B,2014-01-02 12:27:00,
2014-01-02 05:28:00,44.7,24.9,29.59,North,9,3.3,3.6,45,-99.99,,,0.00,0,rob ver 1B,2014-01-02 12:28:00,
2014-01-02 05:29:00,44.9,24.6,29.59,North,356,2.9,3.3,44,-99.99,,,0.00,0,rob ver 1B,2014-01-02 12:29:00,
2014-01-02 05:30:00,44.9,24.6,29.59,North,350,2.6,2.7,44,-99.99,,,0.00,0,rob ver 1B,2014-01-02 12:30:00,
2014-01-02 05:31:00,44.9,24.6,29.59,NE,37,2.2,2.5,44,-99.99,,,0.00,0,rob ver 1B,2014-01-02 12:31:00,
2014-01-02 05:32:00,44.7,24.6,29.59,NE,40,1.8,2.1,45,-99.99,,,0.00,0,rob ver 1B,2014-01-02 12:32:00,
2014-01-02 05:33:00,44.7,24.7,29.59,NE,34,1.6,1.8,45,-99.99,,,0.00,0,rob ver 1B,2014-01-02 12:33:00,
2014-01-02 05:34:00,44.7,24.6,29.59,NNE,32,2.1,2.4,44,-99.99,,,0.00,0,rob ver 1B,2014-01-02 12:34:00,
2014-01-02 05:35:00,45.0,24.6,29.59,NNE,27,1.9,2.2,43,-99.99,,,0.00,0,rob ver 1B,2014-01-02 12:35:00,
2014-01-02 05:36:00,45.6,24.0,29.59,NE,35,2.1,2.4,42,-99.99,,,0.00,0,rob ver 1B,2014-01-02 12:36:00,
2014-01-02 05:37:00,46.1,24.0,29.59,NNE,33,2.0,2.4,40,-99.99,,,0.00,0,rob ver 1B,2014-01-02 12:37:00,
2014-01-02 05:38:00,46.6,23.6,29.59,NE,36,1.0,1.5,40,-99.99,,,0.00,0,rob ver 1B,2014-01-02 12:38:00,
2014-01-02 05:39:00,46.8,24.0,29.59,NNE,24,1.1,1.7,40,-99.99,,,0.00,0,rob ver 1B,2014-01-02 12:39:00,
2014-01-02 05:40:00,46.9,23.9,29.59,North,11,1.1,1.4,40,-99.99,,,0.00,0,rob ver 1B,2014-01-02 12:40:00,
2014-01-02 05:41:00,47.0,23.8,29.59,NNW,332,1.0,1.5,39,-99.99,,,0.00,0,rob ver 1B,2014-01-02 12:41:00,
2014-01-02 05:42:00,47.1,24.0,29.59,North,353,1.9,2.5,39,-99.99,,,0.00,0,rob ver 1B,2014-01-02 12:42:00,
2014-01-02 05:43:00,47.1,24.1,29.59,North,10,2.4,2.6,40,-99.99,,,0.00,0,rob ver 1B,2014-01-02 12:43:00,
2014-01-02 05:44:00,47.0,24.0,29.59,NNE,15,1.8,2.2,40,-99.99,,,0.00,0,rob ver 1B,2014-01-02 12:44:00,
2014-01-02 05:45:00,47.0,24.1,29.59,North,1,1.7,2.0,40,-99.99,,,0.00,0,rob ver 1B,2014-01-02 12:45:00,
2014-01-02 05:46:00,46.9,24.3,29.59,NNW,337,1.8,2.0,40,-99.99,,,0.00,0,rob ver 1B,2014-01-02 12:46:00,
2014-01-02 05:47:00,46.9,24.1,29.59,NW,317,1.7,1.8,40,-99.99,,,0.00,0,rob ver 1B,2014-01-02 12:47:00,
2014-01-02 05:48:00,47.1,24.1,29.59,NW,311,2.1,2.5,40,-99.99,,,0.00,0,rob ver 1B,2014-01-02 12:48:00,
2014-01-02 05:49:00,47.2,24.2,29.59,NW,316,2.2,2.5,40,-99.99,,,0.00,0,rob ver 1B,2014-01-02 12:49:00,
2014-01-02 05:50:00,47.2,24.1,29.59,NW,325,2.3,2.6,39,-99.99,,,0.00,0,rob ver 1B,2014-01-02 12:50:00,
2014-01-02 05:51:00,47.4,24.0,29.59,NW,316,2.4,2.7,39,-99.99,,,0.00,0,rob ver 1B,2014-01-02 12:51:00,
2014-01-02 05:52:00,47.6,24.0,29.59,NW,311,2.6,2.8,39,-99.99,,,0.00,0,rob ver 1B,2014-01-02 12:52:00,
2014-01-02 05:53:00,47.7,24.1,29.59,NW,310,2.6,2.7,39,-99.99,,,0.00,0,rob ver 1B,2014-01-02 12:53:00,
2014-01-02 05:54:00,47.8,24.2,29.59,NW,318,2.5,2.6,39,-99.99,,,0.00,0,rob ver 1B,2014-01-02 12:54:00,
2014-01-02 05:55:00,47.6,24.4,29.59,NW,325,2.5,2.7,40,-99.99,,,0.00,0,rob ver 1B,2014-01-02 12:55:00,
2014-01-02 05:56:00,47.4,24.5,29.59,NNW,347,2.3,2.5,40,-99.99,,,0.00,0,rob ver 1B,2014-01-02 12:56:00,
2014-01-02 05:57:00,47.2,24.6,29.59,North,0,2.1,2.4,41,-99.99,,,0.00,0,rob ver 1B,2014-01-02 12:57:00,
2014-01-02 05:58:00,46.9,24.7,29.59,North,10,2.6,2.8,41,-99.99,,,0.00,0,rob ver 1B,2014-01-02 12:58:00,
2014-01-02 05:59:00,46.7,24.8,29.59,NNE,25,2.6,2.9,42,-99.99,,,0.00,0,rob ver 1B,2014-01-02 12:59:00,
2014-01-02 06:00:00,46.4,24.7,29.59,NE,51,2.6,3.0,42,-99.99,,,0.00,0,rob ver 1B,2014-01-02 13:00:00,
2014-01-02 06:01:00,46.5,24.6,29.59,ENE,72,1.6,2.6,42,-99.99,,,0.00,0,rob ver 1B,2014-01-02 13:01:00,
2014-01-02 06:02:00,46.2,25.0,29.59,ESE,117,1.5,1.9,43,-99.99,,,0.00,0,rob ver 1B,2014-01-02 13:02:00,
2014-01-02 06:03:00,45.7,25.0,29.59,ENE,77,1.7,2.0,44,-99.99,,,0.00,0,rob ver 1B,2014-01-02 13:03:00,
2014-01-02 06:04:00,45.3,25.0,29.59,East,95,1.8,2.5,44,-99.99,,,0.00,0,rob ver 1B,2014-01-02 13:04:00,
2014-01-02 06:05:00,45.2,24.9,29.59,ENE,77,2.9,3.4,44,-99.99,,,0.00,0,rob ver 1B,2014-01-02 13:05:00,
2014-01-02 06:06:00,45.1,24.9,29.59,ENE,70,2.6,3.3,44,-99.99,,,0.00,0,rob ver 1B,2014-01-02 13:06:00,
2014-01-02 06:07:00,45.2,24.8,29.59,ENE,57,1.8,2.3,44,-99.99,,,0.00,0,rob ver 1B,2014-01-02 13:07:00,
2014-01-02 06:08:00,45.3,24.8,29.59,NE,47,1.5,1.6,44,-99.99,,,0.00,0,rob ver 1B,2014-01-02 13:08:00,
2014-01-02 06:09:00,45.3,24.7,29.59,NNE,31,1.0,1.6,44,-99.99,,,0.00,0,rob ver 1B,2014-01-02 13:09:00,
2014-01-02 06:10:00,45.3,24.7,29.59,NE,36,0.5,0.8,43,-99.99,,,0.00,0,rob ver 1B,2014-01-02 13:10:00,
2014-01-02 06:11:00,45.5,24.7,29.59,NE,35,0.8,1.2,43,-99.99,,,0.00,0,rob ver 1B,2014-01-02 13:11:00,
2014-01-02 06:12:00,45.8,24.7,29.59,ENE,69,0.7,1.3,42,-99.99,,,0.00,0,rob ver 1B,2014-01-02 13:12:00,
2014-01-02 06:13:00,46.1,24.4,29.59,NE,48,1.0,1.7,41,-99.99,,,0.00,0,rob ver 1B,2014-01-02 13:13:00,
2014-01-02 06:14:00,46.5,24.4,29.59,North,359,0.6,1.1,41,-99.99,,,0.00,0,rob ver 1B,2014-01-02 13:14:00,
2014-01-02 06:15:00,46.7,24.2,29.59,West,260,0.8,1.8,40,-99.99,,,0.00,0,rob ver 1B,2014-01-02 13:15:00,
2014-01-02 06:16:00,46.9,23.8,29.59,WSW,247,0.8,1.7,39,-99.99,,,0.00,0,rob ver 1B,2014-01-02 13:16:00,
2014-01-02 06:17:00,46.9,23.6,29.59,West,279,0.7,1.1,39,-99.99,,,0.00,0,rob ver 1B,2014-01-02 13:17:00,
2014-01-02 06:18:00,47.0,23.6,29.59,West,261,0.5,0.9,39,-99.99,,,0.00,0,rob ver 1B,2014-01-02 13:18:00,
2014-01-02 06:19:00,47.1,23.4,29.59,West,261,0.4,0.9,39,-99.99,,,0.00,0,rob ver 1B,2014-01-02 13:19:00,
2014-01-02 06:20:00,47.2,23.4,29.59,NNW,330,1.1,2.4,38,-99.99,,,0.00,0,rob ver 1B,2014-01-02 13:20:00,
2014-01-02 06:21:00,47.3,23.4,29.59,NNW,344,1.0,1.6,38,-99.99,,,0.00,0,rob ver 1B,2014-01-02 13:21:00,
2014-01-02 06:22:00,47.6,23.3,29.59,North,359,1.2,1.6,37,-99.99,,,0.00,0,rob ver 1B,2014-01-02 13:22:00,
2014-01-02 06:23:00,47.8,23.2,29.59,NNW,331,1.3,2.5,37,-99.99,,,0.00,0,rob ver 1B,2014-01-02 13:23:00,
2014-01-02 06:24:00,47.9,23.1,29.59,NNW,332,1.2,1.9,37,-99.99,,,0.00,0,rob ver 1B,2014-01-02 13:24:00,
2014-01-02 06:25:00,48.1,23.0,29.59,NW,319,1.6,2.4,36,-99.99,,,0.00,0,rob ver 1B,2014-01-02 13:25:00,
2014-01-02 06:26:00,48.3,23.0,29.59,NNW,341,2.4,3.7,36,-99.99,,,0.00,0,rob ver 1B,2014-01-02 13:26:00,
2014-01-02 06:27:00,48.4,23.0,29.59,NNW,341,2.0,3.3,36,-99.99,,,0.00,0,rob ver 1B,2014-01-02 13:27:00,
2014-01-02 06:28:00,48.4,23.0,29.59,NNW,338,2.6,3.5,36,-99.99,,,0.00,0,rob ver 1B,2014-01-02 13:28:00,
2014-01-02 06:29:00,48.4,23.0,29.59,NNW,337,2.9,4.1,36,-99.99,,,0.00,0,rob ver 1B,2014-01-02 13:29:00,
2014-01-02 06:30:00,48.4,23.0,29.59,NW,321,3.2,3.8,36,-99.99,,,0.00,0,rob ver 1B,2014-01-02 13:30:00,
2014-01-02 06:31:00,48.4,23.0,29.59,NNW,333,2.9,3.4,36,-99.99,,,0.00,0,rob ver 1B,2014-01-02 13:31:00,
2014-01-02 06:32:00,48.5,23.0,29.59,NNW,338,2.4,3.0,36,-99.99,,,0.00,0,rob ver 1B,2014-01-02 13:32:00,
2014-01-02 06:33:00,48.4,22.9,29.59,NNW,340,2.3,2.7,36,-99.99,,,0.00,0,rob ver 1B,2014-01-02 13:33:00,
2014-01-02 06:34:00,48.4,22.9,29.59,North,357,2.9,3.5,36,-99.99,,,0.00,0,rob ver 1B,2014-01-02 13:34:00,
2014-01-02 06:35:00,48.4,23.0,29.59,North,2,3.0,4.0,36,-99.99,,,0.00,0,rob ver 1B,2014-01-02 13:35:00,
2014-01-02 06:36:00,48.3,23.0,29.59,North,357,3.3,3.8,36,-99.99,,,0.00,0,rob ver 1B,2014-01-02 13:36:00,
2014-01-02 06:37:00,48.3,23.0,29.59,North,4,3.4,4.0,36,-99.99,,,0.00,0,rob ver 1B,2014-01-02 13:37:00,
2014-01-02 06:38:00,48.5,22.9,29.59,North,9,4.3,5.4,35,-99.99,,,0.00,0,rob ver 1B,2014-01-02 13:38:00,
2014-01-02 06:39:00,48.8,22.6,29.59,NNE,15,4.2,4.6,35,-99.99,,,0.00,0,rob ver 1B,2014-01-02 13:39:00,
2014-01-02 06:40:00,48.9,22.5,29.59,North,9,4.2,5.1,34,-99.99,,,0.00,0,rob ver 1B,2014-01-02 13:40:00,
2014-01-02 06:41:00,49.0,22.4,29.59,North,358,3.8,4.4,34,-99.99,,,0.00,0,rob ver 1B,2014-01-02 13:41:00,
2014-01-02 06:42:00,49.2,22.5,29.59,North,4,3.8,4.2,35,-99.99,,,0.00,0,rob ver 1B,2014-01-02 13:42:00,
2014-01-02 06:43:00,48.9,22.7,29.59,NNE,15,3.8,4.2,35,-99.99,,,0.00,0,rob ver 1B,2014-01-02 13:43:00,
2014-01-02 06:44:00,48.8,23.0,29.59,NNE,20,3.5,4.1,35,-99.99,,,0.00,0,rob ver 1B,2014-01-02 13:44:00,
2014-01-02 06:45:00,48.9,22.8,29.59,NNE,24,4.0,4.3,35,-99.99,,,0.00,0,rob ver 1B,2014-01-02 13:45:00,
2014-01-02 06:46:00,48.9,22.9,29.59,NNE,25,3.4,3.9,36,-99.99,,,0.00,0,rob ver 1B,2014-01-02 13:46:00,
2014-01-02 06:47:00,48.6,23.2,29.59,NE,37,2.8,3.4,37,-99.99,,,0.00,0,rob ver 1B,2014-01-02 13:47:00,
2014-01-02 06:48:00,48.2,23.3,29.59,NNE,28,2.6,2.9,37,-99.99,,,0.00,0,rob ver 1B,2014-01-02 13:48:00,
2014-01-02 06:49:00,47.9,23.4,29.59,NE,39,2.6,3.0,38,-99.99,,,0.00,0,rob ver 1B,2014-01-02 13:49:00,
2014-01-02 06:50:00,47.8,23.6,29.59,NE,47,2.5,3.4,38,-99.99,,,0.00,0,rob ver 1B,2014-01-02 13:50:00,
2014-01-02 06:51:00,47.5,23.9,29.59,ENE,60,2.3,3.1,39,-99.99,,,0.00,0,rob ver 1B,2014-01-02 13:51:00,
2014-01-02 06:52:00,47.3,23.9,29.59,East,81,1.2,1.8,39,-99.99,,,0.00,0,rob ver 1B,2014-01-02 13:52:00,
2014-01-02 06:53:00,47.2,23.7,29.59,ENE,76,1.1,1.3,38,-99.99,,,0.00,0,rob ver 1B,2014-01-02 13:53:00,
2014-01-02 06:54:00,47.3,23.6,29.59,NE,43,1.1,1.4,38,-99.99,,,0.00,0,rob ver 1B,2014-01-02 13:54:00,
2014-01-02 06:55:00,47.6,23.5,29.59,NNE,31,1.4,1.9,38,-99.99,,,0.00,0,rob ver 1B,2014-01-02 13:55:00,
2014-01-02 06:56:00,48.1,23.4,29.59,NNE,28,1.4,1.7,37,-99.99,,,0.00,0,rob ver 1B,2014-01-02 13:56:00,
2014-01-02 06:57:00,48.5,23.3,29.59,NNE,13,1.6,2.5,36,-99.99,,,0.00,0,rob ver 1B,2014-01-02 13:57:00,
2014-01-02 06:58:00,48.7,23.5,29.59,NNE,17,1.6,2.7,37,-99.99,,,0.00,0,rob ver 1B,2014-01-02 13:58:00,
2014-01-02 06:59:00,48.5,23.6,29.59,NNE,26,1.5,1.9,37,-99.99,,,0.00,0,rob ver 1B,2014-01-02 13:59:00,
2014-01-02 07:00:00,48.3,23.4,29.59,NNE,12,1.1,1.7,36,-99.99,,,0.00,0,rob ver 1B,2014-01-02 14:00:00,
2014-01-02 07:01:00,48.6,23.1,29.59,North,5,1.7,2.3,36,-99.99,,,0.00,0,rob ver 1B,2014-01-02 14:01:00,
2014-01-02 07:02:00,49.0,22.6,29.59,North,353,1.7,2.4,34,-99.99,,,0.00,0,rob ver 1B,2014-01-02 14:02:00,
2014-01-02 07:03:00,49.2,22.9,29.59,NE,44,2.3,3.1,36,-99.99,,,0.00,0,rob ver 1B,2014-01-02 14:03:00,
2014-01-02 07:04:00,49.0,23.3,29.59,ENE,63,3.2,5.3,36,-99.99,,,0.00,0,rob ver 1B,2014-01-02 14:04:00,
2014-01-02 07:05:00,48.6,23.9,29.59,ENE,64,4.6,6.2,38,-99.99,,,0.00,0,rob ver 1B,2014-01-02 14:05:00,
2014-01-02 07:06:00,48.2,24.0,29.59,ENE,61,2.9,4.2,38,-99.99,,,0.00,0,rob ver 1B,2014-01-02 14:06:00,
2014-01-02 07:07:00,47.9,24.0,29.59,NE,52,2.2,3.1,38,-99.99,,,0.00,0,rob ver 1B,2014-01-02 14:07:00,
2014-01-02 07:08:00,47.6,24.1,29.59,ENE,57,2.4,3.1,39,-99.99,,,0.00,0,rob ver 1B,2014-01-02 14:08:00,
2014-01-02 07:09:00,47.4,24.1,29.59,NE,48,2.3,3.0,39,-99.99,,,0.00,0,rob ver 1B,2014-01-02 14:09:00,
2014-01-02 07:10:00,47.3,24.0,29.59,NE,52,2.6,3.2,39,-99.99,,,0.00,0,rob ver 1B,2014-01-02 14:10:00,
2014-01-02 07:11:00,47.3,23.9,29.59,NE,44,1.6,2.2,38,-99.99,,,0.00,0,rob ver 1B,2014-01-02 14:11:00,
2014-01-02 07:12:00,47.6,23.5,29.59,NE,35,1.2,1.9,37,-99.99,,,0.00,0,rob ver 1B,2014-01-02 14:12:00,
2014-01-02 07:13:00,48.2,23.4,29.59,NNE,31,1.5,2.1,37,-99.99,,,0.00,0,rob ver 1B,2014-01-02 14:13:00,
2014-01-02 07:14:00,48.5,23.7,29.59,ENE,57,2.6,3.0,36,-99.99,,,0.00,0,rob ver 1B,2014-01-02 14:14:00,
2014-01-02 07:15:00,48.6,23.8,29.59,NE,54,2.7,3.3,37,-99.99,,,0.00,.165,rob ver 1B,2014-01-02 14:15:00,
2014-01-02 07:16:00,48.3,23.7,29.59,NE,45,2.2,2.8,37,-99.99,,,0.00,.165,rob ver 1B,2014-01-02 14:16:00,
2014-01-02 07:17:00,48.4,23.7,29.59,NNE,16,1.8,2.9,37,-99.99,,,0.00,.33,rob ver 1B,2014-01-02 14:17:00,
2014-01-02 07:18:00,48.6,23.6,29.59,North,1,1.7,2.1,36,-99.99,,,0.00,.33,rob ver 1B,2014-01-02 14:18:00,
2014-01-02 07:19:00,48.8,23.3,29.59,North,0,2.5,3.3,36,-99.99,,,0.00,.33,rob ver 1B,2014-01-02 14:19:00,
2014-01-02 07:20:00,48.6,23.8,29.59,NNE,22,2.8,3.2,37,-99.99,,,0.00,.33,rob ver 1B,2014-01-02 14:20:00,
2014-01-02 07:21:00,48.2,23.8,29.59,NNE,27,3.0,3.4,38,-99.99,,,0.00,.33,rob ver 1B,2014-01-02 14:21:00,
2014-01-02 07:22:00,47.9,24.1,29.59,NNE,26,2.6,3.0,39,-99.99,,,0.00,.33,rob ver 1B,2014-01-02 14:22:00,
2014-01-02 07:23:00,47.5,24.2,29.59,NE,35,2.6,2.8,39,-99.99,,,0.00,.33,rob ver 1B,2014-01-02 14:23:00,
2014-01-02 07:24:00,47.7,23.9,29.59,NE,41,2.4,2.6,38,-99.99,,,0.00,.66,rob ver 1B,2014-01-02 14:24:00,
2014-01-02 07:25:00,48.4,23.5,29.59,NE,36,2.2,2.3,36,-99.99,,,0.00,.66,rob ver 1B,2014-01-02 14:25:00,
2014-01-02 07:26:00,49.0,23.4,29.59,NNE,32,1.8,2.2,36,-99.99,,,0.00,.991,rob ver 1B,2014-01-02 14:26:00,
2014-01-02 07:27:00,49.2,23.2,29.59,NNE,33,1.6,1.8,35,-99.99,,,0.00,1.321,rob ver 1B,2014-01-02 14:27:00,
2014-01-02 07:28:00,49.3,23.0,29.59,NE,38,2.1,2.6,35,-99.99,,,0.00,1.321,rob ver 1B,2014-01-02 14:28:00,
2014-01-02 07:29:00,49.2,23.4,29.59,NE,46,3.7,4.4,36,-99.99,,,0.00,1.816,rob ver 1B,2014-01-02 14:29:00,
2014-01-02 07:30:00,49.1,23.1,29.59,ENE,64,3.0,3.6,35,-99.99,,,0.00,1.981,rob ver 1B,2014-01-02 14:30:00,
2014-01-02 07:31:00,49.3,23.4,29.59,NE,51,3.7,4.2,36,-99.99,,,0.00,2.641,rob ver 1B,2014-01-02 14:31:00,
2014-01-02 07:32:00,49.1,23.6,29.59,NE,53,4.0,4.5,36,-99.99,,,0.00,2.641,rob ver 1B,2014-01-02 14:32:00,
2014-01-02 07:33:00,49.1,23.7,29.59,NE,52,4.0,4.8,36,-99.99,,,0.00,3.302,rob ver 1B,2014-01-02 14:33:00,
2014-01-02 07:34:00,48.7,23.9,29.59,NE,46,4.4,4.9,37,-99.99,,,0.00,3.632,rob ver 1B,2014-01-02 14:34:00,
2014-01-02 07:35:00,48.4,24.0,29.59,NE,49,4.5,4.8,38,-99.99,,,0.00,3.962,rob ver 1B,2014-01-02 14:35:00,
2014-01-02 07:36:00,47.9,24.2,29.59,NE,50,4.8,5.3,39,-99.99,,,0.00,4.622,rob ver 1B,2014-01-02 14:36:00,
2014-01-02 07:37:00,47.3,24.2,29.59,NE,41,4.6,5.4,40,-99.99,,,0.00,5.283,rob ver 1B,2014-01-02 14:37:00,
2014-01-02 07:38:00,46.9,24.3,29.59,NE,35,4.8,5.3,40,-99.99,,,0.00,5.283,rob ver 1B,2014-01-02 14:38:00,
2014-01-02 07:39:00,46.7,24.3,29.59,NNE,30,4.6,5.0,41,-99.99,,,0.00,5.943,rob ver 1B,2014-01-02 14:39:00,
2014-01-02 07:40:00,46.5,24.3,29.59,NNE,26,5.2,5.9,41,-99.99,,,0.00,6.604,rob ver 1B,2014-01-02 14:40:00,
2014-01-02 07:41:00,46.6,24.6,29.59,NNE,30,5.0,6.0,41,-99.99,,,0.00,7.26,rob ver 1B,2014-01-02 14:41:00,
2014-01-02 07:42:00,46.4,24.6,29.59,NNE,27,4.0,4.7,42,-99.99,,,0.00,8.58,rob ver 1B,2014-01-02 14:42:00,
2014-01-02 07:43:00,46.3,24.7,29.59,NNE,21,4.1,4.5,42,-99.99,,,0.00,10.57,rob ver 1B,2014-01-02 14:43:00,
2014-01-02 07:44:00,46.3,24.8,29.59,NNE,19,4.0,4.4,42,-99.99,,,0.00,13.87,rob ver 1B,2014-01-02 14:44:00,
2014-01-02 07:45:00,46.3,24.8,29.62,NNE,24,4.0,4.5,42,-99.99,,,0.00,17.17,rob ver 1B,2014-01-02 14:45:00,
2014-01-02 07:46:00,46.3,24.8,29.62,NE,40,3.9,4.7,42,-99.99,,,0.00,19.15,rob ver 1B,2014-01-02 14:46:00,
2014-01-02 07:47:00,46.2,24.9,29.62,NE,44,3.1,3.9,43,-99.99,,,0.00,21.13,rob ver 1B,2014-01-02 14:47:00,
2014-01-02 07:48:00,46.2,25.0,29.62,SE,130,2.8,4.4,43,-99.99,,,0.00,23.44,rob ver 1B,2014-01-02 14:48:00,
2014-01-02 07:49:00,45.9,25.2,29.62,SE,146,2.7,5.2,44,-99.99,,,0.00,25.75,rob ver 1B,2014-01-02 14:49:00,
2014-01-02 07:50:00,45.8,25.3,29.62,NW,309,1.0,2.2,44,-99.99,,,0.00,28.56,rob ver 1B,2014-01-02 14:50:00,
2014-01-02 07:51:00,45.8,25.1,29.62,SW,222,2.9,3.8,43,-99.99,,,0.00,31.04,rob ver 1B,2014-01-02 14:51:00,
2014-01-02 07:52:00,45.6,25.1,29.62,SW,230,3.7,5.3,44,-99.99,,,0.00,32.69,rob ver 1B,2014-01-02 14:52:00,
2014-01-02 07:53:00,45.0,25.3,29.62,SW,224,3.4,5.1,46,-99.99,,,0.00,35,rob ver 1B,2014-01-02 14:53:00,
2014-01-02 07:54:00,44.3,25.5,29.62,SW,222,3.7,4.0,48,-99.99,,,0.00,37.31,rob ver 1B,2014-01-02 14:54:00,
2014-01-02 07:55:00,43.7,25.6,29.62,SW,219,3.4,4.0,48,-99.99,,,0.00,39.62,rob ver 1B,2014-01-02 14:55:00,
2014-01-02 07:56:00,43.5,25.6,29.62,South,185,2.4,2.9,48,-99.99,,,0.00,42.26,rob ver 1B,2014-01-02 14:56:00,
2014-01-02 07:57:00,43.5,25.4,29.62,SE,144,2.5,2.8,48,-99.99,,,0.00,44.57,rob ver 1B,2014-01-02 14:57:00,
2014-01-02 07:58:00,43.8,25.3,29.62,SE,132,3.1,3.5,46,-99.99,,,0.00,46.89,rob ver 1B,2014-01-02 14:58:00,
2014-01-02 07:59:00,44.4,25.0,29.62,ESE,123,3.1,3.4,45,-99.99,,,0.00,50.02,rob ver 1B,2014-01-02 14:59:00,
2014-01-02 08:00:00,44.8,25.2,29.62,ESE,121,2.6,3.0,45,-99.99,,,0.00,51.67,rob ver 1B,2014-01-02 15:00:00,
2014-01-02 08:01:00,44.9,25.1,29.62,ESE,113,2.9,3.4,45,-99.99,,,0.00,54.31,rob ver 1B,2014-01-02 15:01:00,
2014-01-02 08:02:00,45.2,25.2,29.62,East,96,3.1,3.3,45,-99.99,,,0.00,57.12,rob ver 1B,2014-01-02 15:02:00,
2014-01-02 08:03:00,45.5,25.2,29.62,East,90,3.3,3.5,44,-99.99,,,0.00,60.09,rob ver 1B,2014-01-02 15:03:00,
2014-01-02 08:04:00,45.6,25.2,29.62,East,88,3.3,3.5,44,-99.99,,,0.00,62.73,rob ver 1B,2014-01-02 15:04:00,
2014-01-02 08:05:00,45.7,25.2,29.62,East,83,3.2,3.4,44,-99.99,,,0.00,64.71,rob ver 1B,2014-01-02 15:05:00,
2014-01-02 08:06:00,45.8,25.2,29.62,ENE,77,3.2,3.4,44,-99.99,,,0.00,67.36,rob ver 1B,2014-01-02 15:06:00,
2014-01-02 08:07:00,45.8,25.3,29.62,ENE,69,2.8,3.2,44,-99.99,,,0.00,70.7,rob ver 1B,2014-01-02 15:07:00,
2014-01-02 08:08:00,45.9,25.2,29.62,NE,56,2.8,3.0,43,-99.99,,,0.00,72,rob ver 1B,2014-01-02 15:08:00,
2014-01-02 08:09:00,45.8,25.2,29.62,NE,55,2.3,2.8,44,-99.99,,,0.00,75.3,rob ver 1B,2014-01-02 15:09:00,
2014-01-02 08:10:00,45.9,25.2,29.62,NE,53,2.2,2.5,43,-99.99,,,0.00,77.9,rob ver 1B,2014-01-02 15:10:00,
2014-01-02 08:11:00,46.0,25.3,29.62,NE,46,2.1,2.3,43,-99.99,,,0.00,80.6,rob ver 1B,2014-01-02 15:11:00,
2014-01-02 08:12:00,46.1,25.3,29.62,NE,45,2.2,2.6,43,-99.99,,,0.00,82.9,rob ver 1B,2014-01-02 15:12:00,
2014-01-02 08:13:00,46.1,25.3,29.62,NE,40,2.9,3.2,43,-99.99,,,0.00,85.7,rob ver 1B,2014-01-02 15:13:00,
2014-01-02 08:14:00,46.1,25.2,29.62,NE,34,2.8,2.9,43,-99.99,,,0.00,88.5,rob ver 1B,2014-01-02 15:14:00,
2014-01-02 08:15:00,46.2,25.4,29.62,NNE,33,2.8,3.2,43,-99.99,,,0.00,91,rob ver 1B,2014-01-02 15:15:00,
2014-01-02 08:16:00,46.2,25.4,29.62,NNE,22,2.4,2.7,43,-99.99,,,0.00,93.8,rob ver 1B,2014-01-02 15:16:00,
2014-01-02 08:17:00,46.1,25.5,29.62,NNE,13,2.7,2.9,44,-99.99,,,0.00,96.4,rob ver 1B,2014-01-02 15:17:00,
2014-01-02 08:18:00,46.2,25.5,29.62,North,5,3.0,3.2,43,-99.99,,,0.00,99.1,rob ver 1B,2014-01-02 15:18:00,
2014-01-02 08:19:00,46.5,25.0,29.62,North,8,3.4,3.7,42,-99.99,,,0.00,101.7,rob ver 1B,2014-01-02 15:19:00,
2014-01-02 08:20:00,46.7,25.2,29.62,North,4,3.7,3.9,43,-99.99,,,0.00,104.3,rob ver 1B,2014-01-02 15:20:00,
2014-01-02 08:21:00,46.8,25.5,29.62,North,0,3.7,3.8,43,-99.99,,,0.00,106.3,rob ver 1B,2014-01-02 15:21:00,
2014-01-02 08:22:00,46.8,25.7,29.62,North,356,3.6,3.7,43,-99.99,,,0.00,106.3,rob ver 1B,2014-01-02 15:22:00,
2014-01-02 08:23:00,46.9,25.7,29.62,North,3,3.5,3.7,43,-99.99,,,0.00,105.5,rob ver 1B,2014-01-02 15:23:00,
2014-01-02 08:24:00,46.8,26.4,29.62,North,11,3.2,3.5,44,-99.99,,,0.00,109,rob ver 1B,2014-01-02 15:24:00,
2014-01-02 08:25:00,46.8,26.0,29.62,NNE,14,3.2,3.3,44,-99.99,,,0.00,114.4,rob ver 1B,2014-01-02 15:25:00,
2014-01-02 08:26:00,46.8,26.1,29.62,NNE,12,3.1,3.2,43,-99.99,,,0.00,119.5,rob ver 1B,2014-01-02 15:26:00,
2014-01-02 08:27:00,46.9,25.7,29.62,North,7,2.5,2.9,43,-99.99,,,0.00,124.1,rob ver 1B,2014-01-02 15:27:00,
2014-01-02 08:28:00,47.2,26.2,29.62,North,358,2.2,2.5,43,-99.99,,,0.00,127.1,rob ver 1B,2014-01-02 15:28:00,
2014-01-02 08:29:00,47.5,25.8,29.62,North,349,1.9,2.2,41,-99.99,,,0.00,129.4,rob ver 1B,2014-01-02 15:29:00,
2014-01-02 08:30:00,47.7,25.6,29.62,NNW,348,2.2,2.6,41,-99.99,,,0.00,130.7,rob ver 1B,2014-01-02 15:30:00,
2014-01-02 08:31:00,48.0,25.1,29.62,North,351,1.3,2.9,40,-99.99,,,0.00,132.7,rob ver 1B,2014-01-02 15:31:00,
2014-01-02 08:32:00,48.5,25.0,29.62,North,0,1.4,2.7,38,-99.99,,,0.00,134.4,rob ver 1B,2014-01-02 15:32:00,
2014-01-02 08:33:00,48.9,25.0,29.62,North,7,1.5,1.7,39,-99.99,,,0.00,135.9,rob ver 1B,2014-01-02 15:33:00,
2014-01-02 08:34:00,49.1,25.2,29.62,NNW,338,1.5,2.1,38,-99.99,,,0.00,136,rob ver 1B,2014-01-02 15:34:00,
2014-01-02 08:35:00,49.4,26.1,29.62,NNW,330,1.5,1.9,40,-99.99,,,0.00,132.1,rob ver 1B,2014-01-02 15:35:00,
2014-01-02 08:36:00,49.7,26.6,29.62,NNW,327,1.4,1.7,39,-99.99,,,0.00,138.3,rob ver 1B,2014-01-02 15:36:00,
2014-01-02 08:37:00,49.8,25.2,29.62,NNW,335,1.2,1.5,36,-99.99,,,0.00,147.3,rob ver 1B,2014-01-02 15:37:00,
2014-01-02 08:38:00,50.1,24.1,29.62,NW,319,1.3,1.6,34,-99.99,,,0.00,152.5,rob ver 1B,2014-01-02 15:38:00,
2014-01-02 08:39:00,50.5,24.4,29.62,NW,313,1.4,1.7,37,-99.99,,,0.00,153.5,rob ver 1B,2014-01-02 15:39:00,
2014-01-02 08:40:00,50.8,24.8,29.62,NW,326,1.2,1.5,34,-99.99,,,0.00,155.8,rob ver 1B,2014-01-02 15:40:00,
2014-01-02 08:41:00,51.0,23.7,29.62,NNW,332,1.2,1.7,33,-99.99,,,0.00,160.5,rob ver 1B,2014-01-02 15:41:00,
2014-01-02 08:42:00,51.3,23.4,29.62,NNW,328,0.8,1.0,32,-99.99,,,0.00,161.6,rob ver 1B,2014-01-02 15:42:00,
2014-01-02 08:43:00,51.8,23.4,29.62,NNW,335,0.8,1.1,32,-99.99,,,0.00,165.1,rob ver 1B,2014-01-02 15:43:00,
2014-01-02 08:44:00,52.1,23.3,29.62,North,359,0.9,1.2,31,-99.99,,,0.00,172.3,rob ver 1B,2014-01-02 15:44:00,
2014-01-02 08:45:00,52.5,23.2,29.62,North,352,0.6,0.9,31,-99.99,,,0.00,175.8,rob ver 1B,2014-01-02 15:45:00,
2014-01-02 08:46:00,53.0,23.4,29.62,NNW,343,0.4,0.4,31,-99.99,,,0.00,178.9,rob ver 1B,2014-01-02 15:46:00,
2014-01-02 08:47:00,53.6,24.9,29.62,North,2,0.4,0.4,33,-99.99,,,0.00,181.6,rob ver 1B,2014-01-02 15:47:00,
2014-01-02 08:48:00,54.3,25.5,29.62,North,357,0.4,0.5,31,-99.99,,,0.00,184.1,rob ver 1B,2014-01-02 15:48:00,
2014-01-02 08:49:00,54.8,24.7,29.62,NNW,331,0.3,0.4,30,-99.99,,,0.00,186.2,rob ver 1B,2014-01-02 15:49:00,
2014-01-02 08:50:00,55.2,25.7,29.62,NW,324,0.3,0.5,32,-99.99,,,0.00,189.8,rob ver 1B,2014-01-02 15:50:00,
2014-01-02 08:51:00,55.8,27.3,29.62,ENE,63,0.2,0.4,32,-99.99,,,0.00,193.5,rob ver 1B,2014-01-02 15:51:00,
2014-01-02 08:52:00,56.0,27.0,29.62,ESE,113,0.7,1.5,33,-99.99,,,0.00,196.1,rob ver 1B,2014-01-02 15:52:00,
2014-01-02 08:53:00,55.5,27.9,29.62,SSE,147,1.4,1.6,35,-99.99,,,0.00,200.1,rob ver 1B,2014-01-02 15:53:00,
2014-01-02 08:54:00,55.0,28.6,29.62,SSW,194,2.3,2.9,35,-99.99,,,0.00,203,rob ver 1B,2014-01-02 15:54:00,
2014-01-02 08:55:00,54.6,28.6,29.62,SSW,198,1.9,2.3,37,-99.99,,,0.00,205.3,rob ver 1B,2014-01-02 15:55:00,
2014-01-02 08:56:00,54.2,27.4,29.62,SW,234,1.0,1.6,34,-99.99,,,0.00,205.3,rob ver 1B,2014-01-02 15:56:00,
2014-01-02 08:57:00,54.2,26.7,29.62,WSW,251,1.1,1.8,34,-99.99,,,0.00,208,rob ver 1B,2014-01-02 15:57:00,
2014-01-02 08:58:00,54.1,27.1,29.62,West,265,1.4,1.7,34,-99.99,,,0.00,211.8,rob ver 1B,2014-01-02 15:58:00,
2014-01-02 08:59:00,53.9,26.9,29.62,West,261,1.2,1.5,35,-99.99,,,0.00,217.4,rob ver 1B,2014-01-02 15:59:00,
2014-01-02 09:00:00,53.7,27.2,29.62,WSW,255,1.0,1.2,36,-99.99,,,0.00,218.5,rob ver 1B,2014-01-02 16:00:00,
2014-01-02 09:01:00,53.9,28.0,29.62,WSW,249,0.6,0.8,36,-99.99,,,0.00,218.9,rob ver 1B,2014-01-02 16:01:00,
2014-01-02 09:02:00,54.2,28.3,29.62,SW,218,0.2,0.4,36,-99.99,,,0.00,224.5,rob ver 1B,2014-01-02 16:02:00,
2014-01-02 09:03:00,54.7,27.8,29.62,SSW,196,0.1,0.2,34,-99.99,,,0.00,226.5,rob ver 1B,2014-01-02 16:03:00,
2014-01-02 09:04:00,55.1,27.5,29.62,SSE,152,0.5,0.9,34,-99.99,,,0.00,228.4,rob ver 1B,2014-01-02 16:04:00,
2014-01-02 09:05:00,55.3,27.3,29.62,SSE,167,0.8,1.0,33,-99.99,,,0.00,231.9,rob ver 1B,2014-01-02 16:05:00,
2014-01-02 09:06:00,55.5,27.0,29.62,SE,144,0.7,0.9,33,-99.99,,,0.00,236.9,rob ver 1B,2014-01-02 16:06:00,
2014-01-02 09:07:00,55.4,27.6,29.62,East,97,0.7,1.0,33,-99.99,,,0.00,241,rob ver 1B,2014-01-02 16:07:00,
2014-01-02 09:08:00,55.4,26.7,29.62,NE,47,0.5,0.8,32,-99.99,,,0.00,239.3,rob ver 1B,2014-01-02 16:08:00,
2014-01-02 09:09:00,55.6,26.6,29.62,ENE,60,0.9,1.8,32,-99.99,,,0.00,224.8,rob ver 1B,2014-01-02 16:09:00,
2014-01-02 09:10:00,55.5,26.3,29.62,NE,50,1.1,1.7,31,-99.99,,,0.00,226.8,rob ver 1B,2014-01-02 16:10:00,
2014-01-02 09:11:00,55.4,25.9,29.62,ENE,58,1.3,1.9,32,-99.99,,,0.00,223.5,rob ver 1B,2014-01-02 16:11:00,
2014-01-02 09:12:00,55.3,26.0,29.62,NE,52,1.2,1.7,32,-99.99,,,0.00,218.4,rob ver 1B,2014-01-02 16:12:00,
2014-01-02 09:13:00,55.2,25.7,29.62,NE,53,1.4,2.0,32,-99.99,,,0.00,218.5,rob ver 1B,2014-01-02 16:13:00,
2014-01-02 09:14:00,55.1,26.2,29.62,ENE,58,1.4,1.9,32,-99.99,,,0.00,230.7,rob ver 1B,2014-01-02 16:14:00,
2014-01-02 09:15:00,55.0,26.0,29.62,NE,44,1.0,1.5,32,-99.99,,,0.00,215.6,rob ver 1B,2014-01-02 16:15:00,
2014-01-02 09:16:00,55.1,26.0,29.62,ENE,59,1.1,1.7,32,-99.99,,,0.00,151.2,rob ver 1B,2014-01-02 16:16:00,
2014-01-02 09:17:00,55.0,25.8,29.62,NE,44,1.4,1.8,32,-99.99,,,0.00,198.4,rob ver 1B,2014-01-02 16:17:00,
2014-01-02 09:18:00,54.8,25.5,29.62,NNE,16,1.1,1.6,32,-99.99,,,0.00,216.2,rob ver 1B,2014-01-02 16:18:00,
2014-01-02 09:19:00,54.9,25.8,29.62,NNW,348,0.8,1.2,31,-99.99,,,0.00,191.1,rob ver 1B,2014-01-02 16:19:00,
2014-01-02 09:20:00,55.1,25.6,29.62,North,8,0.7,1.1,32,-99.99,,,0.00,134.8,rob ver 1B,2014-01-02 16:20:00,
2014-01-02 09:21:00,55.2,26.2,29.62,North,358,0.3,0.7,32,-99.99,,,0.00,136.3,rob ver 1B,2014-01-02 16:21:00,
2014-01-02 09:22:00,55.3,26.3,29.62,WNW,300,0.6,0.7,32,-99.99,,,0.00,216.2,rob ver 1B,2014-01-02 16:22:00,
2014-01-02 09:23:00,55.5,26.4,29.62,WNW,303,0.8,1.2,32,-99.99,,,0.00,267.1,rob ver 1B,2014-01-02 16:23:00,
2014-01-02 09:24:00,55.8,26.6,29.62,NW,309,0.8,1.3,32,-99.99,,,0.00,273.5,rob ver 1B,2014-01-02 16:24:00,
2014-01-02 09:25:00,56.0,26.7,29.62,WNW,301,1.0,1.5,31,-99.99,,,0.00,282.2,rob ver 1B,2014-01-02 16:25:00,
2014-01-02 09:26:00,56.1,26.3,29.62,WNW,297,1.2,1.5,31,-99.99,,,0.00,283.6,rob ver 1B,2014-01-02 16:26:00,
2014-01-02 09:27:00,56.3,26.2,29.62,WNW,294,1.0,1.5,31,-99.99,,,0.00,290.7,rob ver 1B,2014-01-02 16:27:00,
2014-01-02 09:28:00,56.4,26.5,29.62,NW,312,0.5,0.9,31,-99.99,,,0.00,298.7,rob ver 1B,2014-01-02 16:28:00,
2014-01-02 09:29:00,56.7,26.7,29.62,NE,40,0.6,1.1,31,-99.99,,,0.00,306,rob ver 1B,2014-01-02 16:29:00,
2014-01-02 09:30:00,56.8,26.7,29.62,NE,51,1.1,1.3,31,-99.99,,,0.00,313.3,rob ver 1B,2014-01-02 16:30:00,
2014-01-02 09:31:00,56.8,26.4,29.62,NE,48,1.0,1.5,30,-99.99,,,0.00,319.2,rob ver 1B,2014-01-02 16:31:00,
2014-01-02 09:32:00,57.1,26.2,29.62,ENE,77,0.4,0.9,30,-99.99,,,0.00,314.6,rob ver 1B,2014-01-02 16:32:00,
2014-01-02 09:33:00,57.6,26.2,29.62,East,82,0.4,0.9,29,-99.99,,,0.00,202.2,rob ver 1B,2014-01-02 16:33:00,
2014-01-02 09:34:00,58.0,26.3,29.62,ENE,61,0.4,1.0,29,-99.99,,,0.00,263.9,rob ver 1B,2014-01-02 16:34:00,
2014-01-02 09:35:00,58.1,26.2,29.62,NNE,18,0.8,1.3,29,-99.99,,,0.00,338.3,rob ver 1B,2014-01-02 16:35:00,
2014-01-02 09:36:00,58.1,26.2,29.62,NNE,14,1.1,1.6,28,-99.99,,,0.00,342.8,rob ver 1B,2014-01-02 16:36:00,
2014-01-02 09:37:00,58.2,26.2,29.62,NNW,336,0.8,1.3,29,-99.99,,,0.00,297.4,rob ver 1B,2014-01-02 16:37:00,
2014-01-02 09:38:00,58.4,25.8,29.62,NW,317,2.2,2.8,27,-99.99,,,0.00,177.9,rob ver 1B,2014-01-02 16:38:00,
2014-01-02 09:39:00,57.9,24.0,29.62,NW,326,3.0,4.0,26,-99.99,,,0.00,297.4,rob ver 1B,2014-01-02 16:39:00,
2014-01-02 09:40:00,57.4,24.1,29.62,NW,325,3.3,4.2,27,-99.99,,,0.00,331.7,rob ver 1B,2014-01-02 16:40:00,
2014-01-02 09:41:00,57.1,24.0,29.62,NW,310,3.8,4.6,26,-99.99,,,0.00,213.6,rob ver 1B,2014-01-02 16:41:00,
2014-01-02 09:42:00,56.9,23.4,29.62,WNW,303,3.8,5.2,27,-99.99,,,0.00,290.5,rob ver 1B,2014-01-02 16:42:00,
2014-01-02 09:43:00,56.6,23.6,29.62,NW,316,4.1,4.9,27,-99.99,,,0.00,353.8,rob ver 1B,2014-01-02 16:43:00,
2014-01-02 09:44:00,56.5,23.6,29.62,NW,311,3.6,4.1,27,-99.99,,,0.00,361.9,rob ver 1B,2014-01-02 16:44:00,
2014-01-02 09:45:00,56.6,23.4,29.65,NW,306,3.5,4.0,28,-99.99,,,0.00,363.4,rob ver 1B,2014-01-02 16:45:00,
2014-01-02 09:46:00,56.7,24.2,29.62,NW,314,3.3,4.3,28,-99.99,,,0.00,364.7,rob ver 1B,2014-01-02 16:46:00,
2014-01-02 09:47:00,56.8,24.0,29.62,WNW,301,3.3,4.0,26,-99.99,,,0.00,363.7,rob ver 1B,2014-01-02 16:47:00,
2014-01-02 09:48:00,57.0,23.5,29.65,WNW,298,3.3,3.9,26,-99.99,,,0.00,366.5,rob ver 1B,2014-01-02 16:48:00,
2014-01-02 09:49:00,57.1,23.9,29.65,WNW,300,3.1,3.6,27,-99.99,,,0.00,369.7,rob ver 1B,2014-01-02 16:49:00,
2014-01-02 09:50:00,57.2,23.4,29.65,WNW,293,3.7,4.5,26,-99.99,,,0.00,369.8,rob ver 1B,2014-01-02 16:50:00,
2014-01-02 09:51:00,57.3,24.0,29.65,WNW,296,3.1,4.1,26,-99.99,,,0.00,359.8,rob ver 1B,2014-01-02 16:51:00,
2014-01-02 09:52:00,57.3,23.2,29.65,WNW,295,3.2,3.8,27,-99.99,,,0.00,352.5,rob ver 1B,2014-01-02 16:52:00,
2014-01-02 09:53:00,57.3,23.4,29.65,WNW,300,3.2,3.9,26,-99.99,,,0.00,344.9,rob ver 1B,2014-01-02 16:53:00,
2014-01-02 09:54:00,57.3,23.4,29.65,NW,311,2.8,3.6,26,-99.99,,,0.00,337.5,rob ver 1B,2014-01-02 16:54:00,
2014-01-02 09:55:00,57.3,24.1,29.65,NW,318,2.7,3.6,27,-99.99,,,0.00,329,rob ver 1B,2014-01-02 16:55:00,
2014-01-02 09:56:00,57.3,23.6,29.65,NW,318,2.9,3.4,26,-99.99,,,0.00,345.1,rob ver 1B,2014-01-02 16:56:00,
2014-01-02 09:57:00,57.4,23.5,29.65,NW,311,2.5,3.2,26,-99.99,,,0.00,359.4,rob ver 1B,2014-01-02 16:57:00,
2014-01-02 09:58:00,57.6,24.3,29.65,NW,307,2.9,4.1,26,-99.99,,,0.00,370.3,rob ver 1B,2014-01-02 16:58:00,
2014-01-02 09:59:00,57.7,23.3,29.65,NW,305,3.0,3.8,26,-99.99,,,0.00,376.6,rob ver 1B,2014-01-02 16:59:00,
2014-01-02 10:00:00,57.8,23.4,29.65,WNW,293,3.2,4.5,26,-99.99,,,0.00,379.4,rob ver 1B,2014-01-02 17:00:00,
2014-01-02 10:01:00,57.9,24.0,29.65,NW,304,3.8,5.5,25,-99.99,,,0.00,336,rob ver 1B,2014-01-02 17:01:00,
2014-01-02 10:02:00,57.8,23.4,29.65,WNW,303,3.5,4.7,26,-99.99,,,0.00,357.1,rob ver 1B,2014-01-02 17:02:00,
2014-01-02 10:03:00,57.8,23.7,29.65,WNW,289,3.6,4.3,26,-99.99,,,0.00,365.7,rob ver 1B,2014-01-02 17:03:00,
2014-01-02 10:04:00,57.9,23.5,29.65,WNW,288,3.6,5.3,26,-99.99,,,0.00,378.7,rob ver 1B,2014-01-02 17:04:00,
2014-01-02 10:05:00,57.9,23.4,29.65,WNW,295,3.5,5.2,26,-99.99,,,0.00,373.3,rob ver 1B,2014-01-02 17:05:00,
2014-01-02 10:06:00,58.0,23.4,29.65,WNW,301,3.5,4.4,25,-99.99,,,0.00,339.9,rob ver 1B,2014-01-02 17:06:00,
2014-01-02 10:07:00,58.0,23.5,29.65,WNW,296,3.8,5.0,25,-99.99,,,0.00,351.1,rob ver 1B,2014-01-02 17:07:00,
2014-01-02 10:08:00,57.9,23.1,29.65,WNW,284,3.6,5.0,25,-99.99,,,0.00,390.1,rob ver 1B,2014-01-02 17:08:00,
2014-01-02 10:09:00,58.0,23.1,29.65,WNW,294,3.7,4.5,25,-99.99,,,0.00,396,rob ver 1B,2014-01-02 17:09:00,
2014-01-02 10:10:00,58.0,23.3,29.65,WNW,291,4.1,5.8,25,-99.99,,,0.00,400.2,rob ver 1B,2014-01-02 17:10:00,
2014-01-02 10:11:00,58.1,23.0,29.65,WNW,293,3.8,4.6,25,-99.99,,,0.00,404.4,rob ver 1B,2014-01-02 17:11:00,
2014-01-02 10:12:00,58.2,23.3,29.65,WNW,291,3.7,4.6,26,-99.99,,,0.00,414.5,rob ver 1B,2014-01-02 17:12:00,
2014-01-02 10:13:00,58.3,23.3,29.65,WNW,296,3.4,4.4,25,-99.99,,,0.00,419.8,rob ver 1B,2014-01-02 17:13:00,
2014-01-02 10:14:00,58.3,23.0,29.65,West,268,4.1,5.2,25,-99.99,,,0.00,422.3,rob ver 1B,2014-01-02 17:14:00,
2014-01-02 10:15:00,58.3,23.2,29.65,WSW,247,4.2,5.2,25,-99.99,,,0.00,424.7,rob ver 1B,2014-01-02 17:15:00,
2014-01-02 10:16:00,58.3,23.2,29.65,WSW,254,4.7,5.8,26,-99.99,,,0.00,427,rob ver 1B,2014-01-02 17:16:00,
2014-01-02 10:17:00,58.2,23.3,29.65,WSW,245,3.9,5.0,25,-99.99,,,0.00,432.3,rob ver 1B,2014-01-02 17:17:00,
2014-01-02 10:18:00,58.3,23.5,29.65,WSW,253,4.4,6.5,25,-99.99,,,0.00,425.1,rob ver 1B,2014-01-02 17:18:00,
2014-01-02 10:19:00,58.3,23.5,29.65,West,270,3.8,6.1,25,-99.99,,,0.00,419.8,rob ver 1B,2014-01-02 17:19:00,
2014-01-02 10:20:00,58.3,23.3,29.65,WSW,250,5.1,6.3,25,-99.99,,,0.00,441.6,rob ver 1B,2014-01-02 17:20:00,
2014-01-02 10:21:00,58.2,23.2,29.65,West,264,5.4,7.4,25,-99.99,,,0.00,436.9,rob ver 1B,2014-01-02 17:21:00,
2014-01-02 10:22:00,58.2,23.3,29.65,West,265,4.6,5.5,25,-99.99,,,0.00,440.9,rob ver 1B,2014-01-02 17:22:00,
2014-01-02 10:23:00,58.2,23.4,29.65,West,270,4.4,5.7,25,-99.99,,,0.00,447.3,rob ver 1B,2014-01-02 17:23:00,
2014-01-02 10:24:00,58.3,23.2,29.65,West,278,4.6,5.6,25,-99.99,,,0.00,449.5,rob ver 1B,2014-01-02 17:24:00,
2014-01-02 10:25:00,58.3,23.1,29.65,West,277,4.7,6.6,25,-99.99,,,0.00,450.8,rob ver 1B,2014-01-02 17:25:00,
2014-01-02 10:26:00,58.3,23.2,29.65,West,269,4.5,6.1,25,-99.99,,,0.00,451.6,rob ver 1B,2014-01-02 17:26:00,
2014-01-02 10:27:00,58.4,23.2,29.65,West,270,4.3,5.4,25,-99.99,,,0.00,452.8,rob ver 1B,2014-01-02 17:27:00,
2014-01-02 10:28:00,58.5,23.2,29.65,West,277,4.4,6.1,25,-99.99,,,0.00,456.1,rob ver 1B,2014-01-02 17:28:00,
2014-01-02 10:29:00,58.6,23.2,29.65,West,279,3.7,5.0,25,-99.99,,,0.00,458.5,rob ver 1B,2014-01-02 17:29:00,
2014-01-02 10:30:00,58.7,23.2,29.65,West,275,4.7,5.6,25,-99.99,,,0.00,461,rob ver 1B,2014-01-02 17:30:00,
2014-01-02 10:31:00,58.7,23.1,29.65,WNW,288,4.3,5.2,25,-99.99,,,0.00,459,rob ver 1B,2014-01-02 17:31:00,
2014-01-02 10:32:00,58.8,23.2,29.65,WNW,285,3.8,4.9,25,-99.99,,,0.00,461,rob ver 1B,2014-01-02 17:32:00,
2014-01-02 10:33:00,58.9,23.1,29.65,West,268,4.1,5.2,24,-99.99,,,0.00,437.9,rob ver 1B,2014-01-02 17:33:00,
2014-01-02 10:34:00,58.9,23.2,29.65,West,263,3.6,4.6,25,-99.99,,,0.00,408.4,rob ver 1B,2014-01-02 17:34:00,
2014-01-02 10:35:00,59.0,23.4,29.65,West,277,3.2,3.9,24,-99.99,,,0.00,396.6,rob ver 1B,2014-01-02 17:35:00,
2014-01-02 10:36:00,59.1,23.3,29.65,West,272,3.8,5.3,24,-99.99,,,0.00,405,rob ver 1B,2014-01-02 17:36:00,
2014-01-02 10:37:00,59.1,23.4,29.65,West,264,3.1,4.5,25,-99.99,,,0.00,441.2,rob ver 1B,2014-01-02 17:37:00,
2014-01-02 10:38:00,59.4,23.9,29.65,WNW,295,3.1,4.3,24,-99.99,,,0.00,439.2,rob ver 1B,2014-01-02 17:38:00,
2014-01-02 10:39:00,59.7,23.4,29.65,WNW,292,2.8,3.7,24,-99.99,,,0.00,421.4,rob ver 1B,2014-01-02 17:39:00,
2014-01-02 10:40:00,59.8,23.3,29.65,WNW,299,2.7,3.4,24,-99.99,,,0.00,419.9,rob ver 1B,2014-01-02 17:40:00,
2014-01-02 10:41:00,59.9,23.6,29.65,NW,304,2.3,3.4,24,-99.99,,,0.00,416.4,rob ver 1B,2014-01-02 17:41:00,
2014-01-02 10:42:00,60.0,23.7,29.65,NW,306,2.2,3.3,24,-99.99,,,0.00,424.7,rob ver 1B,2014-01-02 17:42:00,
2014-01-02 10:43:00,60.1,23.5,29.65,NW,314,2.3,3.4,24,-99.99,,,0.00,492,rob ver 1B,2014-01-02 17:43:00,
2014-01-02 10:44:00,60.3,23.6,29.65,WNW,287,1.8,2.4,23,-99.99,,,0.00,493.1,rob ver 1B,2014-01-02 17:44:00,
2014-01-02 10:45:00,60.6,23.7,29.65,WSW,257,2.7,4.3,23,-99.99,,,0.00,500.6,rob ver 1B,2014-01-02 17:45:00,
2014-01-02 10:46:00,60.6,23.4,29.65,WSW,255,3.3,4.0,23,-99.99,,,0.00,504.5,rob ver 1B,2014-01-02 17:46:00,
2014-01-02 10:47:00,60.5,23.5,29.65,West,274,2.7,3.8,24,-99.99,,,0.00,503.9,rob ver 1B,2014-01-02 17:47:00,
2014-01-02 10:48:00,60.7,24.1,29.65,West,262,2.0,3.5,23,-99.99,,,0.00,503,rob ver 1B,2014-01-02 17:48:00,
2014-01-02 10:49:00,61.0,23.8,29.65,SW,229,2.9,3.5,23,-99.99,,,0.00,503,rob ver 1B,2014-01-02 17:49:00,
2014-01-02 10:50:00,61.2,23.8,29.65,West,277,3.3,4.1,23,-99.99,,,0.00,505.2,rob ver 1B,2014-01-02 17:50:00,
2014-01-02 10:51:00,61.1,23.6,29.65,West,272,2.3,3.7,23,-99.99,,,0.00,503.2,rob ver 1B,2014-01-02 17:51:00,
2014-01-02 10:52:00,61.2,23.9,29.65,WSW,257,2.8,4.9,23,-99.99,,,0.00,496.6,rob ver 1B,2014-01-02 17:52:00,
2014-01-02 10:53:00,61.2,23.9,29.65,SW,235,2.9,3.6,23,-99.99,,,0.00,509.3,rob ver 1B,2014-01-02 17:53:00,
2014-01-02 10:54:00,61.2,24.4,29.65,WSW,239,3.3,4.2,24,-99.99,,,0.00,511.9,rob ver 1B,2014-01-02 17:54:00,
2014-01-02 10:55:00,61.3,23.9,29.65,SW,234,3.7,5.5,23,-99.99,,,0.00,509.1,rob ver 1B,2014-01-02 17:55:00,
2014-01-02 10:56:00,61.2,23.9,29.65,WSW,248,4.3,5.4,23,-99.99,,,0.00,488.2,rob ver 1B,2014-01-02 17:56:00,
2014-01-02 10:57:00,60.9,23.8,29.65,WSW,257,4.5,5.3,24,-99.99,,,0.00,511.1,rob ver 1B,2014-01-02 17:57:00,
2014-01-02 10:58:00,60.8,24.0,29.65,WSW,250,4.8,5.8,24,-99.99,,,0.00,500.5,rob ver 1B,2014-01-02 17:58:00,
2014-01-02 10:59:00,60.7,23.9,29.65,West,264,5.3,6.6,24,-99.99,,,0.00,478.1,rob ver 1B,2014-01-02 17:59:00,
2014-01-02 11:00:00,60.7,24.0,29.65,WSW,251,3.7,4.9,24,-99.99,,,0.00,490.1,rob ver 1B,2014-01-02 18:00:00,
2014-01-02 11:01:00,60.8,24.3,29.65,WSW,242,4.5,5.7,24,-99.99,,,0.00,512.1,rob ver 1B,2014-01-02 18:01:00,
2014-01-02 11:02:00,60.9,23.9,29.65,WSW,243,5.2,6.8,23,-99.99,,,0.00,518.4,rob ver 1B,2014-01-02 18:02:00,
2014-01-02 11:03:00,60.9,24.1,29.65,WSW,252,4.5,5.4,24,-99.99,,,0.00,519.2,rob ver 1B,2014-01-02 18:03:00,
2014-01-02 11:04:00,61.1,24.1,29.65,West,260,3.9,4.9,23,-99.99,,,0.00,520.3,rob ver 1B,2014-01-02 18:04:00,
2014-01-02 11:05:00,61.2,24.1,29.65,West,261,3.4,4.9,24,-99.99,,,0.00,520.3,rob ver 1B,2014-01-02 18:05:00,
2014-01-02 11:06:00,61.3,23.8,29.65,WSW,246,4.5,5.7,23,-99.99,,,0.00,522.5,rob ver 1B,2014-01-02 18:06:00,
2014-01-02 11:07:00,61.2,23.7,29.65,WSW,251,4.0,5.3,24,-99.99,,,0.00,523.8,rob ver 1B,2014-01-02 18:07:00,
2014-01-02 11:08:00,61.3,23.7,29.62,WSW,237,4.2,5.5,23,-99.99,,,0.00,525.1,rob ver 1B,2014-01-02 18:08:00,
2014-01-02 11:09:00,61.2,23.8,29.65,WSW,243,4.3,5.5,23,-99.99,,,0.00,526.8,rob ver 1B,2014-01-02 18:09:00,
2014-01-02 11:10:00,61.3,23.9,29.65,West,264,5.5,6.6,23,-99.99,,,0.00,528.1,rob ver 1B,2014-01-02 18:10:00,
2014-01-02 11:11:00,61.3,23.7,29.62,West,275,3.9,5.6,23,-99.99,,,0.00,530.7,rob ver 1B,2014-01-02 18:11:00,
2014-01-02 11:12:00,61.5,23.8,29.62,West,266,2.9,4.3,23,-99.99,,,0.00,531.2,rob ver 1B,2014-01-02 18:12:00,
2014-01-02 11:13:00,61.7,23.7,29.65,West,274,4.7,6.2,22,-99.99,,,0.00,532.2,rob ver 1B,2014-01-02 18:13:00,
2014-01-02 11:14:00,61.6,23.5,29.65,West,263,4.0,5.1,22,-99.99,,,0.00,533.5,rob ver 1B,2014-01-02 18:14:00,
2014-01-02 11:15:00,61.6,23.5,29.62,WSW,257,4.8,5.7,22,-99.99,,,0.00,533.9,rob ver 1B,2014-01-02 18:15:00,
2014-01-02 11:16:00,61.6,23.5,29.62,WSW,244,3.2,4.7,23,-99.99,,,0.00,535.5,rob ver 1B,2014-01-02 18:16:00,
2014-01-02 11:17:00,61.8,23.6,29.62,WSW,244,4.4,6.4,22,-99.99,,,0.00,536.5,rob ver 1B,2014-01-02 18:17:00,
2014-01-02 11:18:00,61.8,23.6,29.62,WSW,250,3.8,5.7,22,-99.99,,,0.00,537.1,rob ver 1B,2014-01-02 18:18:00,
2014-01-02 11:19:00,61.8,23.6,29.62,WSW,238,4.0,6.8,23,-99.99,,,0.00,539.5,rob ver 1B,2014-01-02 18:19:00,
2014-01-02 11:20:00,62.0,23.7,29.62,West,271,5.0,8.2,23,-99.99,,,0.00,539.8,rob ver 1B,2014-01-02 18:20:00,
2014-01-02 11:21:00,62.2,23.6,29.62,West,272,3.9,4.8,22,-99.99,,,0.00,540.6,rob ver 1B,2014-01-02 18:21:00,
2014-01-02 11:22:00,62.4,23.7,29.62,WSW,250,3.9,5.2,22,-99.99,,,0.00,542.6,rob ver 1B,2014-01-02 18:22:00,
2014-01-02 11:23:00,62.6,23.4,29.62,West,268,4.1,5.3,21,-99.99,,,0.00,541.9,rob ver 1B,2014-01-02 18:23:00,
2014-01-02 11:24:00,62.8,23.4,29.62,West,276,2.9,5.9,21,-99.99,,,0.00,538.3,rob ver 1B,2014-01-02 18:24:00,
2014-01-02 11:25:00,62.9,23.0,29.62,West,263,5.2,6.1,21,-99.99,,,0.00,536.3,rob ver 1B,2014-01-02 18:25:00,
2014-01-02 11:26:00,62.8,23.0,29.62,WSW,248,4.5,6.3,22,-99.99,,,0.00,540.9,rob ver 1B,2014-01-02 18:26:00,
2014-01-02 11:27:00,62.9,23.0,29.62,West,260,4.4,5.1,21,-99.99,,,0.00,546.3,rob ver 1B,2014-01-02 18:27:00,
2014-01-02 11:28:00,62.8,23.1,29.62,West,271,5.3,7.4,21,-99.99,,,0.00,548.8,rob ver 1B,2014-01-02 18:28:00,
2014-01-02 11:29:00,62.8,23.0,29.62,West,272,5.5,7.2,21,-99.99,,,0.00,549.1,rob ver 1B,2014-01-02 18:29:00,
2014-01-02 11:30:00,62.9,23.0,29.62,WSW,253,4.9,6.4,21,-99.99,,,0.00,548.5,rob ver 1B,2014-01-02 18:30:00,
2014-01-02 11:31:00,63.0,23.0,29.62,WSW,252,6.0,7.8,21,-99.99,,,0.00,551.8,rob ver 1B,2014-01-02 18:31:00,
2014-01-02 11:32:00,63.0,23.2,29.62,West,259,5.2,6.3,21,-99.99,,,0.00,552.4,rob ver 1B,2014-01-02 18:32:00,
2014-01-02 11:33:00,63.1,23.1,29.62,WSW,245,5.6,7.2,21,-99.99,,,0.00,554.2,rob ver 1B,2014-01-02 18:33:00,
2014-01-02 11:34:00,63.2,23.2,29.62,WSW,254,5.5,7.8,21,-99.99,,,0.00,555.6,rob ver 1B,2014-01-02 18:34:00,
2014-01-02 11:35:00,63.4,22.9,29.62,West,278,6.0,7.3,20,-99.99,,,0.00,556,rob ver 1B,2014-01-02 18:35:00,
2014-01-02 11:36:00,63.3,22.9,29.62,WNW,285,5.4,6.6,21,-99.99,,,0.00,557.2,rob ver 1B,2014-01-02 18:36:00,
2014-01-02 11:37:00,63.4,23.2,29.62,WNW,288,4.6,6.0,21,-99.99,,,0.00,558.8,rob ver 1B,2014-01-02 18:37:00,
2014-01-02 11:38:00,63.6,23.5,29.62,West,266,3.9,6.3,21,-99.99,,,0.00,559.7,rob ver 1B,2014-01-02 18:38:00,
2014-01-02 11:39:00,63.7,23.4,29.62,SW,233,5.4,8.1,21,-99.99,,,0.00,559.5,rob ver 1B,2014-01-02 18:39:00,
2014-01-02 11:40:00,63.8,23.4,29.62,WSW,256,5.9,7.2,21,-99.99,,,0.00,563,rob ver 1B,2014-01-02 18:40:00,
2014-01-02 11:41:00,63.9,23.5,29.62,West,267,5.6,7.2,20,-99.99,,,0.00,563.8,rob ver 1B,2014-01-02 18:41:00,
2014-01-02 11:42:00,63.9,23.0,29.62,West,267,5.7,7.0,20,-99.99,,,0.00,564.1,rob ver 1B,2014-01-02 18:42:00,
2014-01-02 11:43:00,63.9,23.3,29.62,WSW,257,4.5,6.8,21,-99.99,,,0.00,565.3,rob ver 1B,2014-01-02 18:43:00,
2014-01-02 11:44:00,64.1,23.5,29.62,WSW,257,5.5,7.0,21,-99.99,,,0.00,566.4,rob ver 1B,2014-01-02 18:44:00,
2014-01-02 11:45:00,64.2,23.3,29.62,West,272,5.9,7.9,20,-99.99,,,0.00,566.2,rob ver 1B,2014-01-02 18:45:00,
2014-01-02 11:46:00,64.2,23.3,29.62,West,273,5.0,6.7,21,-99.99,,,0.00,566.7,rob ver 1B,2014-01-02 18:46:00,
2014-01-02 11:47:00,64.4,24.1,29.62,WSW,254,5.7,7.4,21,-99.99,,,0.00,568.7,rob ver 1B,2014-01-02 18:47:00,
2014-01-02 11:48:00,64.7,23.7,29.62,WSW,250,6.0,7.3,20,-99.99,,,0.00,569.9,rob ver 1B,2014-01-02 18:48:00,
2014-01-02 11:49:00,64.6,23.4,29.62,West,274,5.7,7.5,20,-99.99,,,0.00,570.7,rob ver 1B,2014-01-02 18:49:00,
2014-01-02 11:50:00,64.7,23.6,29.62,WNW,283,5.4,7.3,20,-99.99,,,0.00,570.8,rob ver 1B,2014-01-02 18:50:00,
2014-01-02 11:51:00,64.7,23.5,29.62,WNW,291,7.0,8.0,20,-99.99,,,0.00,572.7,rob ver 1B,2014-01-02 18:51:00,
2014-01-02 11:52:00,64.7,23.6,29.62,WNW,282,4.7,6.5,20,-99.99,,,0.00,572.5,rob ver 1B,2014-01-02 18:52:00,
2014-01-02 11:53:00,64.7,23.5,29.62,West,281,4.5,5.5,20,-99.99,,,0.00,574.3,rob ver 1B,2014-01-02 18:53:00,
2014-01-02 11:54:00,64.8,23.3,29.62,West,260,5.1,6.3,20,-99.99,,,0.00,575,rob ver 1B,2014-01-02 18:54:00,
2014-01-02 11:55:00,64.9,23.7,29.62,WSW,249,4.7,5.8,20,-99.99,,,0.00,575.6,rob ver 1B,2014-01-02 18:55:00,
2014-01-02 11:56:00,65.0,23.8,29.62,West,267,4.8,7.7,20,-99.99,,,0.00,575.8,rob ver 1B,2014-01-02 18:56:00,
2014-01-02 11:57:00,65.2,23.8,29.62,WNW,282,4.4,6.3,20,-99.99,,,0.00,576.9,rob ver 1B,2014-01-02 18:57:00,
2014-01-02 11:58:00,65.4,23.9,29.62,WNW,291,5.0,6.6,20,-99.99,,,0.00,577.8,rob ver 1B,2014-01-02 18:58:00,
2014-01-02 11:59:00,65.6,23.6,29.62,West,278,5.9,7.1,19,-99.99,,,0.00,578.4,rob ver 1B,2014-01-02 18:59:00,
2014-01-02 12:00:00,65.6,23.6,29.62,West,270,6.2,8.4,19,-99.99,,,0.00,579.6,rob ver 1B,2014-01-02 19:00:00,
2014-01-02 12:01:00,65.6,23.5,29.62,WNW,285,7.0,8.0,20,-99.99,,,0.00,579.7,rob ver 1B,2014-01-02 19:01:00,
2014-01-02 12:02:00,65.6,23.3,29.62,WNW,284,6.7,8.5,19,-99.99,,,0.00,580.2,rob ver 1B,2014-01-02 19:02:00,
2014-01-02 12:03:00,65.6,23.5,29.62,West,276,5.3,6.8,20,-99.99,,,0.00,581.9,rob ver 1B,2014-01-02 19:03:00,
2014-01-02 12:04:00,65.6,23.7,29.62,West,273,5.1,6.9,20,-99.99,,,0.00,582.5,rob ver 1B,2014-01-02 19:04:00,
2014-01-02 12:05:00,65.7,23.7,29.62,West,265,4.9,6.1,20,-99.99,,,0.00,581.4,rob ver 1B,2014-01-02 19:05:00,
2014-01-02 12:06:00,65.7,24.1,29.59,West,261,5.2,7.5,20,-99.99,,,0.00,581.6,rob ver 1B,2014-01-02 19:06:00,
2014-01-02 12:07:00,65.8,24.1,29.62,West,267,5.4,6.5,20,-99.99,,,0.00,581.2,rob ver 1B,2014-01-02 19:07:00,
2014-01-02 12:08:00,66.0,23.8,29.59,West,275,6.4,7.7,20,-99.99,,,0.00,576.8,rob ver 1B,2014-01-02 19:08:00,
2014-01-02 12:09:00,66.0,23.8,29.59,WNW,289,5.2,6.4,19,-99.99,,,0.00,569.8,rob ver 1B,2014-01-02 19:09:00,
2014-01-02 12:10:00,66.0,23.8,29.59,WNW,282,5.3,7.2,20,-99.99,,,0.00,561.1,rob ver 1B,2014-01-02 19:10:00,
2014-01-02 12:11:00,66.1,23.7,29.59,West,277,4.0,5.3,19,-99.99,,,0.00,567.7,rob ver 1B,2014-01-02 19:11:00,
2014-01-02 12:12:00,66.3,24.0,29.59,West,273,4.2,5.7,20,-99.99,,,0.00,569.7,rob ver 1A,2014-01-02 19:12:00,
2014-01-02 12:13:00,35.3,32.0,-100.00,North,0,0.0,0.0,13,-99.99,,,0.00,,rob ver 1A,2014-01-02 19:13:00,
2014-01-02 12:14:00,66.4,24.1,29.59,West,273,6.6,8.3,19,-99.99,,,0.00,567.2,rob ver 1B,2014-01-02 19:14:00,
2014-01-02 12:15:00,66.5,23.9,29.59,West,279,6.4,7.6,19,-99.99,,,0.00,585.3,rob ver 1B,2014-01-02 19:15:00,
2014-01-02 12:16:00,66.6,24.0,29.59,West,279,5.3,8.0,19,-99.99,,,0.00,588.8,rob ver 1B,2014-01-02 19:16:00,
2014-01-02 12:17:00,28.7,33.6,69.10,North,0,999.9,0.0,228,-99.99,,,0.71,18.07,rob ver 1A,2014-01-02 19:17:00,
2014-01-02 12:18:00,66.7,24.0,29.59,West,272,5.6,7.1,19,-99.99,,,0.00,589.9,rob ver 1B,2014-01-02 19:18:00,
2014-01-02 12:19:00,66.9,23.8,29.59,West,268,5.3,8.2,19,-99.99,,,0.00,590.1,rob ver 1B,2014-01-02 19:19:00,
2014-01-02 12:20:00,67.1,24.4,29.59,WNW,287,5.4,6.8,18,-99.99,,,0.00,589.7,rob ver 1B,2014-01-02 19:20:00,
2014-01-02 12:21:00,67.4,23.6,29.59,WNW,291,6.2,7.6,18,-99.99,,,0.00,589.9,rob ver 1B,2014-01-02 19:21:00,
2014-01-02 12:22:00,56.1,32.0,0.00,North,0,0.0,0.0,0,-99.99,,,0.00,,rob ver 1A,2014-01-02 19:22:00,
2014-01-02 12:23:00,67.4,23.4,29.59,WNW,293,6.1,8.4,18,-99.99,,,0.00,590.2,rob ver 1B,2014-01-02 19:23:00,
2014-01-02 12:24:00,67.4,23.1,29.59,WNW,286,6.2,7.5,18,-99.99,,,0.00,590.1,rob ver 1B,2014-01-02 19:24:00,
2014-01-02 12:25:00,67.4,23.5,29.59,WNW,291,6.2,8.5,18,-99.99,,,0.00,590.4,rob ver 1B,2014-01-02 19:25:00,
2014-01-02 12:26:00,67.3,23.2,29.59,WNW,285,6.7,8.0,18,-99.99,,,0.00,590.7,rob ver 1B,2014-01-02 19:26:00,
2014-01-02 12:27:00,67.2,23.4,29.59,West,275,5.3,6.5,18,-99.99,,,0.00,590.9,rob ver 1A,2014-01-02 19:27:00,
2014-01-02 12:28:00,67.2,24.0,29.59,West,280,3.6,4.7,19,-99.99,,,0.00,589.2,rob ver 1B,2014-01-02 19:28:00,
2014-01-02 12:29:00,67.4,24.3,29.59,NW,305,3.0,3.7,19,-99.99,,,0.00,588.7,rob ver 1B,2014-01-02 19:29:00,
2014-01-02 12:30:00,67.7,23.8,29.59,WNW,282,4.9,7.2,18,-99.99,,,0.00,584.3,rob ver 1B,2014-01-02 19:30:00,
2014-01-02 12:31:00,67.7,23.7,29.59,WNW,284,5.0,6.4,18,-99.99,,,0.00,587.7,rob ver 1B,2014-01-02 19:31:00,
2014-01-02 12:32:00,67.6,24.1,29.59,WNW,294,4.0,4.9,19,-99.99,,,0.00,589.4,rob ver 1A,2014-01-02 19:32:00,
2014-01-02 12:33:00,67.7,24.0,29.59,WNW,290,3.0,4.2,19,-99.99,,,0.00,588.2,rob ver 1B,2014-01-02 19:33:00,
2014-01-02 12:34:00,67.9,24.3,29.59,West,267,4.9,6.8,18,-99.99,,,0.00,587.1,rob ver 1B,2014-01-02 19:34:00,
2014-01-02 12:35:00,68.1,24.4,29.59,West,268,4.9,6.1,19,-99.99,,,0.00,582,rob ver 1B,2014-01-02 19:35:00,
2014-01-02 12:36:00,68.3,24.3,29.59,WSW,258,5.9,8.7,18,-99.99,,,0.00,583.8,rob ver 1B,2014-01-02 19:36:00,
2014-01-02 12:37:00,68.1,24.5,29.59,WSW,258,5.4,6.8,19,-99.99,,,0.00,578.2,rob ver 1A,2014-01-02 19:37:00,
2014-01-02 12:38:00,68.1,24.3,29.59,West,280,4.5,6.0,18,-99.99,,,0.00,579.3,rob ver 1B,2014-01-02 19:38:00,
2014-01-02 12:39:00,68.2,24.3,29.59,West,275,4.3,5.7,19,-99.99,,,0.00,577,rob ver 1B,2014-01-02 19:39:00,
2014-01-02 12:40:00,68.2,24.6,29.59,West,263,5.1,8.1,18,-99.99,,,0.00,584.9,rob ver 1B,2014-01-02 19:40:00,
2014-01-02 12:41:00,68.1,24.4,29.59,West,260,6.1,7.4,19,-99.99,,,0.00,585.9,rob ver 1B,2014-01-02 19:41:00,
2014-01-02 12:42:00,68.0,24.5,29.59,SW,231,4.6,6.0,19,-99.99,,,0.00,589,rob ver 1A,2014-01-02 19:42:00,
2014-01-02 12:43:00,68.1,24.4,29.59,WSW,248,6.4,7.9,19,-99.99,,,0.00,587.7,rob ver 1B,2014-01-02 19:43:00,
2014-01-02 12:44:00,68.3,24.1,29.59,West,265,5.5,6.8,18,-99.99,,,0.00,590.2,rob ver 1B,2014-01-02 19:44:00,
2014-01-02 12:45:00,68.3,23.9,29.59,West,273,5.8,8.0,18,-99.99,,,0.00,591.7,rob ver 1B,2014-01-02 19:45:00,
2014-01-02 12:46:00,68.3,23.9,29.59,WNW,284,5.2,6.3,18,-99.99,,,0.00,591,rob ver 1B,2014-01-02 19:46:00,
2014-01-02 12:47:00,68.4,24.3,29.59,West,275,5.7,7.3,19,-99.99,,,0.00,591.2,rob ver 1A,2014-01-02 19:47:00,
2014-01-02 12:48:00,68.5,24.5,29.59,WSW,254,6.1,8.4,18,-99.99,,,0.00,590.8,rob ver 1B,2014-01-02 19:48:00,
2014-01-02 12:49:00,68.4,24.3,29.59,WSW,244,6.0,7.8,18,-99.99,,,0.00,591,rob ver 1B,2014-01-02 19:49:00,
2014-01-02 12:50:00,68.3,24.2,29.59,WSW,256,5.2,7.3,18,-99.99,,,0.00,591.7,rob ver 1B,2014-01-02 19:50:00,
2014-01-02 12:51:00,68.4,24.3,29.59,WNW,285,5.1,7.6,19,-99.99,,,0.00,590.4,rob ver 1B,2014-01-02 19:51:00,
2014-01-02 12:52:00,68.5,24.6,29.56,West,263,6.5,9.5,18,-99.99,,,0.00,588.9,rob ver 1A,2014-01-02 19:52:00,
2014-01-02 12:53:00,68.4,24.2,29.59,WSW,258,7.5,9.3,18,-99.99,,,0.00,589,rob ver 1B,2014-01-02 19:53:00,
2014-01-02 12:54:00,68.3,24.3,29.59,SW,229,4.9,6.4,18,-99.99,,,0.00,589,rob ver 1B,2014-01-02 19:54:00,
2014-01-02 12:55:00,68.4,24.4,29.59,WSW,247,4.4,6.0,19,-99.99,,,0.00,588,rob ver 1B,2014-01-02 19:55:00,
2014-01-02 12:56:00,68.6,24.5,29.56,WSW,248,6.0,9.4,18,-99.99,,,0.00,587.2,rob ver 1B,2014-01-02 19:56:00,
2014-01-02 12:57:00,68.8,24.2,29.56,West,277,7.6,8.8,18,-99.99,,,0.00,587.9,rob ver 1A,2014-01-02 19:57:00,
2014-01-02 12:58:00,68.9,23.8,29.56,West,267,6.9,9.0,18,-99.99,,,0.00,587.2,rob ver 1B,2014-01-02 19:58:00,
2014-01-02 13:02:00,69.4,23.8,29.56,West,270,8.6,11.3,17,-99.99,,,0.00,585.1,rob ver 1A,2014-01-02 20:02:00,
2014-01-02 13:07:00,69.5,23.7,29.56,WSW,249,7.2,9.5,17,-99.99,,,0.00,583.7,rob ver 1A,2014-01-02 20:07:00,
2014-01-02 13:12:00,70.0,23.8,29.56,WNW,282,7.7,9.0,16,-99.99,,,0.00,581.2,rob ver 1B,2014-01-02 20:12:00,
2014-01-02 13:17:00,70.1,23.4,29.56,West,259,8.2,9.3,17,-99.99,,,0.00,575.9,rob ver 1A,2014-01-02 20:17:00,
2014-01-02 13:22:00,70.2,23.6,29.56,WNW,284,6.5,8.3,17,-99.99,,,0.00,574.1,rob ver 1B,2014-01-02 20:22:00,
2014-01-02 13:27:00,70.6,23.0,29.56,West,270,8.6,11.3,16,-99.99,,,0.00,572.8,rob ver 1A,2014-01-02 20:27:00,
2014-01-02 13:32:00,70.9,22.5,29.56,WNW,286,7.3,8.9,16,-99.99,,,0.00,568.2,rob ver 1A,2014-01-02 20:32:00,
2014-01-02 13:38:00,71.0,23.1,29.56,West,259,7.6,11.1,16,-99.99,,,0.00,561.9,rob ver 1A,2014-01-02 20:38:00,
2014-01-02 13:43:00,71.3,22.4,29.56,WNW,283,6.6,9.2,15,-99.99,,,0.00,556.8,rob ver 1A,2014-01-02 20:43:00,
2014-01-02 13:48:00,72.1,22.2,29.56,WSW,257,9.8,11.8,15,-99.99,,,0.00,551.9,rob ver 1A,2014-01-02 20:48:00,
2014-01-02 13:53:00,72.3,22.1,29.56,West,267,8.6,10.8,14,-99.99,,,0.00,546.1,rob ver 1A,2014-01-02 20:53:00,
2014-01-02 13:58:00,72.3,21.9,29.53,West,262,10.4,14.4,14,-99.99,,,0.00,539.3,rob ver 1A,2014-01-02 20:58:00,
2014-01-02 14:03:00,72.4,21.8,29.53,West,265,9.7,12.1,15,-99.99,,,0.00,533.4,rob ver 1A,2014-01-02 21:03:00,
2014-01-02 14:08:00,72.5,21.2,29.53,WSW,253,11.4,13.9,14,-99.99,,,0.00,526.5,rob ver 1A,2014-01-02 21:08:00,
2014-01-02 14:13:00,72.9,21.3,29.53,WSW,258,10.6,13.7,14,-99.99,,,0.00,518.2,rob ver 1A,2014-01-02 21:13:00,
2014-01-02 14:19:00,72.8,21.0,29.53,West,266,11.1,14.0,14,-99.99,,,0.00,509.3,rob ver 1A,2014-01-02 21:19:00,
2014-01-02 14:24:00,73.5,22.0,29.53,West,265,10.8,14.8,13,-99.99,,,0.00,500.5,rob ver 1A,2014-01-02 21:24:00,
2014-01-02 14:29:00,73.1,21.4,29.53,WSW,255,9.4,12.1,14,-99.99,,,0.00,491.8,rob ver 1A,2014-01-02 21:29:00,
2014-01-02 14:34:00,73.3,21.4,29.53,WSW,252,11.5,13.3,14,-99.99,,,0.00,482.4,rob ver 1A,2014-01-02 21:34:00,
2014-01-02 14:39:00,73.4,21.1,29.53,West,262,11.5,13.5,13,-99.99,,,0.00,473.1,rob ver 1A,2014-01-02 21:39:00,
2014-01-02 14:44:00,73.4,21.1,29.53,WSW,253,12.5,15.4,13,-99.99,,,0.00,463.6,rob ver 1A,2014-01-02 21:44:00,
2014-01-02 14:49:00,73.3,21.0,29.53,West,260,12.3,15.0,13,-99.99,,,0.00,453.8,rob ver 1A,2014-01-02 21:49:00,
2014-01-02 14:54:00,73.6,21.1,29.53,WSW,253,9.8,11.1,13,-99.99,,,0.00,443.1,rob ver 1A,2014-01-02 21:54:00,
2014-01-02 14:59:00,73.8,21.0,29.53,WSW,257,12.0,14.4,13,-99.99,,,0.00,430.3,rob ver 1A,2014-01-02 21:59:00,
2014-01-02 15:05:00,73.5,21.0,29.53,West,264,11.6,14.1,13,-99.99,,,0.00,418.9,rob ver 1A,2014-01-02 22:05:00,
2014-01-02 15:10:00,73.4,21.0,29.53,West,264,12.3,15.0,13,-99.99,,,0.00,407.2,rob ver 1A,2014-01-02 22:10:00,
2014-01-02 15:15:00,73.3,21.3,29.53,West,259,11.6,14.4,14,-99.99,,,0.00,395.6,rob ver 1A,2014-01-02 22:15:00,
2014-01-02 15:20:00,73.3,21.3,29.50,West,270,10.9,13.1,14,-99.99,,,0.00,383.1,rob ver 1A,2014-01-02 22:20:00,
2014-01-02 15:25:00,73.1,21.5,29.50,West,266,11.6,13.6,14,-99.99,,,0.00,371.7,rob ver 1A,2014-01-02 22:25:00,
2014-01-02 15:30:00,73.2,21.6,29.53,West,270,11.6,12.9,14,-99.99,,,0.00,358.7,rob ver 1A,2014-01-02 22:30:00,
2014-01-02 15:35:00,72.9,21.3,29.50,West,274,10.7,12.7,14,-99.99,,,0.00,345.4,rob ver 1A,2014-01-02 22:35:00,
2014-01-02 15:40:00,73.2,21.5,29.50,West,268,11.3,14.0,14,-99.99,,,0.00,332,rob ver 1A,2014-01-02 22:40:00,
2014-01-02 15:46:00,73.6,21.8,29.50,WSW,256,11.0,14.3,13,-99.99,,,0.00,315.9,rob ver 1A,2014-01-02 22:46:00,
2014-01-02 15:51:00,73.4,21.6,29.50,West,261,11.2,12.8,14,-99.99,,,0.00,302.3,rob ver 1A,2014-01-02 22:51:00,
2014-01-02 15:56:00,73.3,21.9,29.50,West,260,10.4,12.6,14,-99.99,,,0.00,288.8,rob ver 1A,2014-01-02 22:56:00,
2014-01-02 16:01:00,73.1,21.8,29.50,WSW,254,12.6,14.5,14,-99.99,,,0.00,274.6,rob ver 1A,2014-01-02 23:01:00,
2014-01-02 16:06:00,73.2,22.1,29.50,WSW,254,10.5,12.4,14,-99.99,,,0.00,260.3,rob ver 1A,2014-01-02 23:06:00,
2014-01-02 16:11:00,73.2,22.1,29.50,West,262,9.7,11.3,14,-99.99,,,0.00,246.5,rob ver 1A,2014-01-02 23:11:00,
2014-01-02 16:16:00,73.2,22.1,29.50,West,260,10.9,13.9,14,-99.99,,,0.00,231.9,rob ver 1A,2014-01-02 23:16:00,
2014-01-02 16:21:00,73.0,22.0,29.50,West,264,10.5,12.9,14,-99.99,,,0.00,215.3,rob ver 1A,2014-01-02 23:21:00,
2014-01-02 16:26:00,72.9,22.2,29.50,WSW,258,10.2,12.8,14,-99.99,,,0.00,203.4,rob ver 1A,2014-01-02 23:26:00,
2014-01-02 16:32:00,72.8,22.0,29.50,West,264,10.8,12.8,14,-99.99,,,0.00,186.6,rob ver 1B,2014-01-02 23:32:00,
2014-01-02 16:37:00,72.6,21.9,29.50,West,265,10.6,12.2,14,-99.99,,,0.00,171.8,rob ver 1A,2014-01-02 23:37:00,
2014-01-02 16:42:00,72.3,21.6,29.50,West,263,12.0,13.7,14,-99.99,,,0.00,157.6,rob ver 1A,2014-01-02 23:42:00,
2014-01-02 16:47:00,72.1,21.8,29.50,West,270,10.3,12.5,14,-99.99,,,0.00,143.8,rob ver 1A,2014-01-02 23:47:00,
2014-01-02 16:52:00,71.9,22.0,29.50,West,265,9.7,12.5,15,-99.99,,,0.00,129.9,rob ver 1B,2014-01-02 23:52:00,
2014-01-02 16:57:00,71.6,22.3,29.50,West,267,9.2,11.1,15,-99.99,,,0.00,115.4,rob ver 1A,2014-01-02 23:57:00,
2014-01-02 17:02:00,71.2,22.0,29.50,West,271,9.9,12.3,15,-99.99,,,0.00,99.6,rob ver 1B,2014-01-03 00:02:00,
2014-01-02 17:07:00,70.8,22.9,29.50,West,268,9.1,12.0,16,-99.99,,,0.00,87,rob ver 1A,2014-01-03 00:07:00,
2014-01-02 17:13:00,70.4,23.3,29.50,West,272,9.7,11.7,16,-99.99,,,0.00,72.5,rob ver 1B,2014-01-03 00:13:00,
2014-01-02 17:18:00,70.0,23.9,29.50,West,278,7.0,8.5,17,-99.99,,,0.00,61.65,rob ver 1A,2014-01-03 00:18:00,
2014-01-02 17:23:00,69.5,24.1,29.50,West,277,7.8,9.6,17,-99.99,,,0.00,40.22,rob ver 1A,2014-01-03 00:23:00,
2014-01-02 17:28:00,68.8,24.4,29.50,West,274,7.1,9.0,18,-99.99,,,0.00,30.99,rob ver 1A,2014-01-03 00:28:00,
2014-01-02 17:33:00,68.3,24.7,29.50,West,274,7.2,9.2,19,-99.99,,,0.00,13.19,rob ver 1A,2014-01-03 00:33:00,
2014-01-02 17:38:00,67.6,24.9,29.50,West,278,7.3,9.1,19,-99.99,,,0.00,7.91,rob ver 1A,2014-01-03 00:38:00,
2014-01-02 17:43:00,67.2,25.0,29.50,West,274,7.5,8.3,20,-99.99,,,0.00,4.616,rob ver 1A,2014-01-03 00:43:00,
2014-01-02 17:48:00,66.9,25.1,29.50,WNW,283,7.7,9.5,20,-99.99,,,0.00,2.638,rob ver 1A,2014-01-03 00:48:00,
2014-01-02 17:53:00,66.5,25.5,29.50,WNW,285,7.3,9.2,21,-99.99,,,0.00,1.319,rob ver 1A,2014-01-03 00:53:00,
2014-01-02 17:59:00,66.6,25.6,29.50,WNW,282,8.4,9.8,21,-99.99,,,0.00,.66,rob ver 1A,2014-01-03 00:59:00,
2014-01-02 18:04:00,66.1,26.0,29.50,WNW,282,6.9,7.9,21,-99.99,,,0.00,0,rob ver 1A,2014-01-03 01:04:00,
2014-01-02 18:09:00,65.6,26.1,29.50,WNW,295,6.0,7.0,22,-99.99,,,0.00,0,rob ver 1A,2014-01-03 01:09:00,
2014-01-02 18:14:00,65.5,26.0,29.50,West,280,7.8,9.0,22,-99.99,,,0.00,0,rob ver 1A,2014-01-03 01:14:00,
2014-01-02 18:19:00,65.8,25.8,29.50,WNW,284,8.3,9.2,22,-99.99,,,0.00,0,rob ver 1A,2014-01-03 01:19:00,
2014-01-02 18:24:00,65.4,25.8,29.50,WNW,282,8.0,9.9,22,-99.99,,,0.00,0,rob ver 1A,2014-01-03 01:24:00,
2014-01-02 18:29:00,65.3,25.6,29.50,West,279,7.5,9.2,22,-99.99,,,0.00,0,rob ver 1A,2014-01-03 01:29:00,
2014-01-02 18:34:00,64.6,25.6,29.50,West,277,6.8,8.3,22,-99.99,,,0.00,0,rob ver 1A,2014-01-03 01:34:00,
2014-01-02 18:39:00,64.7,24.7,29.50,West,278,7.7,8.4,21,-99.99,,,0.00,0,rob ver 1A,2014-01-03 01:39:00,
2014-01-02 18:45:00,64.4,24.5,29.50,West,278,7.4,9.0,21,-99.99,,,0.00,0,rob ver 1A,2014-01-03 01:45:00,
2014-01-02 18:50:00,64.0,24.4,29.50,West,277,6.6,7.3,22,-99.99,,,0.00,0,rob ver 1A,2014-01-03 01:50:00,
2014-01-02 18:55:00,63.1,24.7,29.50,West,276,6.8,7.6,22,-99.99,,,0.00,0,rob ver 1A,2014-01-03 01:55:00,
2014-01-02 19:00:00,62.5,24.6,29.50,West,270,5.9,6.6,23,-99.99,,,0.00,0,rob ver 1A,2014-01-03 02:00:00,
2014-01-02 19:05:00,61.9,24.7,29.50,West,261,4.4,4.9,24,-99.99,,,0.00,0,rob ver 1A,2014-01-03 02:05:00,
2014-01-02 19:10:00,61.0,24.8,29.50,West,265,4.5,4.9,24,-99.99,,,0.00,0,rob ver 1A,2014-01-03 02:10:00,
2014-01-02 19:15:00,60.4,24.7,29.50,West,259,3.9,4.4,25,-99.99,,,0.00,0,rob ver 1A,2014-01-03 02:15:00,
2014-01-02 19:21:00,59.7,24.9,29.50,WSW,253,5.1,5.3,26,-99.99,,,0.00,0,rob ver 1A,2014-01-03 02:21:00,
2014-01-02 19:26:00,59.5,25.0,29.50,WSW,247,5.2,5.8,26,-99.99,,,0.00,0,rob ver 1A,2014-01-03 02:26:00,
2014-01-02 19:31:00,59.2,25.1,29.50,WSW,255,6.3,6.8,26,-99.99,,,0.00,0,rob ver 1A,2014-01-03 02:31:00,
2014-01-02 19:36:00,59.4,25.1,29.50,West,263,5.3,6.5,26,-99.99,,,0.00,0,rob ver 1A,2014-01-03 02:36:00,
2014-01-02 19:41:00,59.3,24.9,29.50,West,270,6.0,6.7,26,-99.99,,,0.00,0,rob ver 1A,2014-01-03 02:41:00,
2014-01-02 19:46:00,58.8,25.2,29.50,West,262,5.7,6.3,27,-99.99,,,0.00,0,rob ver 1A,2014-01-03 02:46:00,
2014-01-02 19:51:00,58.1,25.3,29.50,West,265,6.2,7.1,28,-99.99,,,0.00,0,rob ver 1A,2014-01-03 02:51:00,
2014-01-02 19:57:00,58.0,25.3,29.50,West,269,6.1,6.6,28,-99.99,,,0.00,0,rob ver 1A,2014-01-03 02:57:00,
2014-01-02 20:02:00,58.0,25.1,29.50,West,279,6.1,6.7,28,-99.99,,,0.00,0,rob ver 1A,2014-01-03 03:02:00,
2014-01-02 20:07:00,57.7,25.2,29.50,WNW,287,4.8,5.4,28,-99.99,,,0.00,0,rob ver 1A,2014-01-03 03:07:00,
2014-01-02 20:12:00,57.7,25.1,29.50,WNW,300,3.8,4.5,28,-99.99,,,0.00,0,rob ver 1A,2014-01-03 03:12:00,
2014-01-02 20:17:00,57.6,25.0,29.50,NW,316,2.7,2.9,28,-99.99,,,0.00,0,rob ver 1A,2014-01-03 03:17:00,
2014-01-02 20:22:00,57.4,25.0,29.50,ENE,67,1.0,1.4,28,-99.99,,,0.00,0,rob ver 1A,2014-01-03 03:22:00,
2014-01-02 20:27:00,57.2,24.9,29.50,ESE,119,1.1,1.3,28,-99.99,,,0.00,0,rob ver 1A,2014-01-03 03:27:00,
2014-01-02 20:32:00,57.8,24.7,29.50,ESE,118,2.2,2.4,27,-99.99,,,0.00,0,rob ver 1A,2014-01-03 03:32:00,
2014-01-02 20:38:00,58.4,24.6,29.50,SE,140,0.8,1.3,26,-99.99,,,0.00,0,rob ver 1A,2014-01-03 03:38:00,
2014-01-02 20:43:00,58.2,24.8,29.50,East,95,1.1,1.4,27,-99.99,,,0.00,0,rob ver 1A,2014-01-03 03:43:00,
2014-01-02 20:48:00,57.8,24.9,29.53,North,353,1.1,1.4,28,-99.99,,,0.00,0,rob ver 1A,2014-01-03 03:48:00,
2014-01-02 20:53:00,57.3,24.9,29.50,NNW,348,0.9,1.3,28,-99.99,,,0.00,0,rob ver 1A,2014-01-03 03:53:00,
2014-01-02 20:58:00,56.8,24.9,29.50,East,91,0.9,1.2,29,-99.99,,,0.00,0,rob ver 1A,2014-01-03 03:58:00,
2014-01-02 21:03:00,56.6,24.8,29.50,SSW,202,1.5,2.0,29,-99.99,,,0.00,0,rob ver 1A,2014-01-03 04:03:00,
2014-01-02 21:08:00,56.9,24.7,29.50,WSW,238,1.1,1.2,28,-99.99,,,0.00,0,rob ver 1A,2014-01-03 04:08:00,
2014-01-02 21:13:00,57.1,24.7,29.50,West,267,3.3,3.7,28,-99.99,,,0.00,0,rob ver 1A,2014-01-03 04:13:00,
2014-01-02 21:18:00,56.5,25.1,29.50,West,277,3.5,3.9,29,-99.99,,,0.00,0,rob ver 1A,2014-01-03 04:18:00,
2014-01-02 21:24:00,54.6,25.1,29.50,NE,52,3.0,3.9,31,-99.99,,,0.00,0,rob ver 1A,2014-01-03 04:24:00,
2014-01-02 21:29:00,54.5,24.3,29.53,NNE,12,0.2,0.4,30,-99.99,,,0.00,0,rob ver 1A,2014-01-03 04:29:00,
2014-01-02 21:34:00,55.0,23.9,29.50,NW,306,0.8,1.1,29,-99.99,,,0.00,0,rob ver 1A,2014-01-03 04:34:00,
2014-01-02 21:39:00,55.6,23.8,29.50,WNW,294,1.4,1.6,29,-99.99,,,0.00,0,rob ver 1A,2014-01-03 04:39:00,
2014-01-02 21:44:00,55.9,23.9,29.50,NW,317,1.7,1.9,28,-99.99,,,0.00,0,rob ver 1A,2014-01-03 04:44:00,
2014-01-02 21:49:00,55.5,24.1,29.50,North,355,2.3,2.6,29,-99.99,,,0.00,0,rob ver 1A,2014-01-03 04:49:00,
2014-01-02 21:54:00,55.7,23.8,29.50,NW,306,2.0,2.2,28,-99.99,,,0.00,0,rob ver 1A,2014-01-03 04:54:00,
2014-01-02 21:59:00,55.3,24.5,29.50,North,349,1.5,1.7,30,-99.99,,,0.00,0,rob ver 1A,2014-01-03 04:59:00,
2014-01-02 22:01:00,54.6,24.6,29.50,North,358,1.5,2.4,30,-99.99,,,0.00,0,rob ver 1A,2014-01-03 05:01:00,
2014-01-02 22:03:00,54.6,24.1,29.50,NW,325,1.2,1.5,30,-99.99,,,0.00,0,rob ver 1A,2014-01-03 05:03:00,
2014-01-02 22:04:00,54.7,24.3,29.50,NNW,339,1.2,1.4,30,-99.99,,,0.00,0,rob ver 1A,2014-01-03 05:04:00,
2014-01-02 22:06:00,54.7,23.9,29.50,North,359,1.6,1.9,29,-99.99,,,0.00,0,rob ver 1A,2014-01-03 05:06:00,
2014-01-02 22:11:00,55.2,23.7,29.50,WNW,292,1.8,2.0,29,-99.99,,,0.00,0,rob ver 1A,2014-01-03 05:11:00,
2014-01-02 22:15:00,55.0,23.6,29.50,West,277,3.4,3.6,29,-99.99,,,0.00,0,rob ver 1A,2014-01-03 05:15:00,
2014-01-02 22:20:00,54.7,23.6,29.50,West,280,3.7,4.0,29,-99.99,,,0.00,0,rob ver 1A,2014-01-03 05:20:00,
2014-01-02 22:25:00,54.2,23.5,29.50,West,264,5.3,5.5,29,-99.99,,,0.00,0,rob ver 1A,2014-01-03 05:25:00,
2014-01-02 22:30:00,55.0,23.0,29.50,West,268,4.1,4.5,28,-99.99,,,0.00,0,rob ver 1A,2014-01-03 05:30:00,
2014-01-02 22:35:00,54.8,23.8,29.50,West,271,2.8,3.0,29,-99.99,,,0.00,0,rob ver 1A,2014-01-03 05:35:00,
2014-01-02 22:40:00,54.3,22.9,29.50,WNW,291,3.2,3.5,29,-99.99,,,0.00,0,rob ver 1A,2014-01-03 05:40:00,
2014-01-02 22:45:00,54.5,22.6,29.53,WNW,282,2.8,3.0,28,-99.99,,,0.00,0,rob ver 1A,2014-01-03 05:45:00,
2014-01-02 22:51:00,53.6,23.1,29.50,WSW,253,3.2,3.8,30,-99.99,,,0.00,0,rob ver 1A,2014-01-03 05:51:00,
2014-01-02 22:56:00,52.7,22.8,29.50,WSW,258,3.5,4.1,30,-99.99,,,0.00,0,rob ver 1A,2014-01-03 05:56:00,
2014-01-02 23:01:00,52.0,23.0,29.50,WNW,300,2.3,3.1,32,-99.99,,,0.00,0,rob ver 1A,2014-01-03 06:01:00,
2014-01-02 23:06:00,52.0,22.4,29.50,NW,322,1.6,2.3,30,-99.99,,,0.00,0,rob ver 1A,2014-01-03 06:06:00,
2014-01-02 23:11:00,52.4,22.5,29.50,NW,317,1.6,2.0,30,-99.99,,,0.00,0,rob ver 1A,2014-01-03 06:11:00,
2014-01-02 23:16:00,52.9,21.8,29.50,WNW,294,1.8,2.4,29,-99.99,,,0.00,0,rob ver 1A,2014-01-03 06:16:00,
2014-01-02 23:21:00,53.7,21.5,29.50,WNW,283,2.4,3.5,28,-99.99,,,0.00,0,rob ver 1A,2014-01-03 06:21:00,
2014-01-02 23:27:00,53.9,21.2,29.50,WNW,285,3.2,3.7,27,-99.99,,,0.00,0,rob ver 1A,2014-01-03 06:27:00,
2014-01-02 23:32:00,53.0,21.5,29.50,West,270,3.3,4.2,29,-99.99,,,0.00,0,rob ver 1A,2014-01-03 06:32:00,
2014-01-02 23:37:00,52.8,21.4,29.50,West,280,4.3,5.0,28,-99.99,,,0.00,0,rob ver 1A,2014-01-03 06:37:00,
2014-01-02 23:42:00,53.8,21.0,29.50,WNW,286,4.9,5.6,27,-99.99,,,0.00,0,rob ver 1A,2014-01-03 06:42:00,
2014-01-02 23:47:00,53.1,21.5,29.50,West,270,3.7,4.2,28,-99.99,,,0.00,0,rob ver 1A,2014-01-03 06:47:00,
2014-01-02 23:52:00,52.9,21.4,29.50,West,263,4.4,4.9,29,-99.99,,,0.00,0,rob ver 1A,2014-01-03 06:52:00,
2014-01-02 23:57:00,51.7,21.8,29.50,WSW,256,4.0,4.2,30,-99.99,,,0.00,0,rob ver 1A,2014-01-03 06:57:00,